GFSGL_850_spd_000.txt.gz
Wind_Speed
44 43 40 36 32 26 23 21 20 17 17 17 16 15 15 13 12 12 11 11 13 13 14 17 16 17 18 19 20 22 23 24 30 34 32 28 30 31 30 30 31 33 36
47 46 45 41 37 33 28 24 20 19 17 17 16 16 16 15 12 11 10 9 10 11 12 14 16 16 19 19 21 22 24 25 29 32 34 34 33 32 32 34 34 34 37
51 49 47 46 42 38 32 26 20 20 19 17 18 17 15 13 11 10 9 9 11 13 14 16 16 17 19 19 21 23 25 26 29 31 34 36 37 34 35 34 37 38 40
52 51 50 48 48 43 33 28 20 20 20 19 18 16 15 13 12 11 12 13 14 16 17 17 17 17 19 21 23 25 26 27 28 29 32 37 37 35 36 38 41 40 44
54 54 52 51 51 45 32 30 21 21 22 20 19 18 16 16 14 12 13 15 17 18 18 18 18 19 20 24 27 26 25 28 29 30 32 34 37 36 39 39 41 44 47
48 52 52 48 50 44 27 32 27 25 23 23 24 21 19 18 13 13 14 17 18 20 21 21 21 23 21 20 19 23 27 28 29 30 31 31 35 39 39 40 42 46 47
40 43 44 44 44 39 26 23 37 26 25 26 27 24 23 19 14 16 18 21 22 22 22 23 25 24 25 22 23 26 27 26 27 28 29 32 36 38 40 42 41 46 51
33 35 37 37 38 37 28 30 33 32 29 27 25 24 25 21 18 20 22 24 24 24 25 25 25 26 26 25 27 26 27 27 26 27 28 31 34 37 37 37 38 44 52
27 29 31 31 29 37 26 32 32 38 31 27 24 23 24 24 22 22 24 26 25 24 23 24 25 26 26 27 26 27 28 26 24 26 28 31 34 31 27 27 32 43 45
21 21 23 24 27 26 26 29 35 37 36 32 24 19 17 25 26 28 25 24 24 20 20 23 23 26 25 22 23 24 23 21 25 28 30 33 29 24 23 24 36 45 47
12 17 19 19 27 27 26 28 32 31 32 26 24 26 30 35 27 30 24 22 21 19 21 20 22 23 20 19 19 20 21 22 26 30 32 30 27 24 23 26 33 43 49
11 13 17 18 22 25 24 25 28 30 28 20 27 31 29 18 28 25 19 20 21 22 21 21 20 19 19 21 20 19 19 24 28 28 26 26 25 23 25 25 36 43 52
9 10 15 21 22 21 19 15 12 8 11 16 26 27 22 22 22 15 17 21 20 21 20 18 18 19 20 20 19 17 20 25 26 23 23 23 23 26 29 29 36 38 48
7 10 13 16 19 17 16 16 6 7 15 21 21 17 18 19 16 17 18 18 18 19 19 18 20 21 20 18 16 17 22 22 21 22 21 22 24 26 29 29 37 40 45
8 9 13 19 22 22 21 13 9 18 19 16 17 15 18 17 16 16 16 17 18 18 18 19 19 17 14 14 15 20 20 18 18 19 20 22 24 26 30 28 29 35 39
13 18 19 22 17 19 18 17 19 16 13 13 16 15 13 13 14 14 15 17 16 15 16 18 15 12 12 15 18 17 15 15 17 19 20 22 24 26 29 28 26 29 34
13 14 17 10 13 19 19 16 15 15 15 15 11 9 8 9 10 11 11 12 13 11 13 14 12 13 16 16 14 13 14 16 18 19 20 20 23 23 25 25 24 25 28
10 13 13 18 14 15 18 15 14 13 11 9 6 6 6 7 7 8 11 12 9 9 10 11 12 14 14 11 12 14 14 16 17 17 18 18 20 21 23 22 22 21 23
13 16 14 10 9 10 9 10 13 10 10 7 6 6 7 7 7 6 9 11 13 13 12 12 10 9 9 11 13 14 17 17 15 14 15 16 17 19 20 20 20 19 18
7 7 5 3 3 3 3 6 6 7 9 10 7 7 7 8 6 6 7 9 10 9 8 7 7 8 10 11 13 15 14 11 9 9 11 13 15 18 20 19 18 19 20
8 6 5 4 3 3 3 5 6 7 7 7 7 8 7 8 8 7 7 8 8 7 7 6 6 8 11 12 12 10 8 7 7 7 10 12 14 17 18 19 16 14 15
8 7 6 7 8 9 9 10 9 7 7 8 10 10 10 11 9 8 8 8 8 6 6 6 7 10 10 9 6 5 5 5 6 7 8 10 13 15 17 18 18 15 14
7 7 7 8 9 10 11 12 11 9 9 11 13 12 11 11 9 7 8 9 9 7 7 8 9 9 6 4 2 2 3 4 5 7 8 9 11 13 15 17 18 17 16
6 6 6 6 6 8 10 11 10 11 11 14 14 14 15 13 10 7 9 8 8 7 8 8 9 6 4 2 2 2 3 4 5 7 8 9 10 11 12 13 14 14 14
3 3 4 4 5 8 9 10 10 10 10 10 11 12 13 14 13 11 10 7 5 6 6 8 6 5 4 3 1 2 3 4 5 6 8 9 9 9 10 11 12 12 12
3 3 3 2 3 6 6 7 8 8 8 7 8 9 9 12 13 13 13 10 7 6 7 7 7 5 4 3 3 4 5 5 4 4 6 7 7 7 8 9 10 10 11

GFSGL_850_spd_003.txt.gz
Wind_Speed
41 42 41 39 35 31 29 24 21 22 18 20 18 16 16 14 13 13 13 14 13 13 12 11 12 13 13 15 16 19 21 20 21 25 21 22 26 26 27 27 27 28 27
42 44 45 44 39 33 34 28 19 19 21 19 19 18 17 16 15 14 14 14 15 12 10 10 11 13 14 17 18 19 20 20 22 23 27 24 22 27 30 31 29 27 30
44 46 47 48 45 41 42 31 17 14 16 21 22 21 19 18 17 16 14 15 14 13 12 13 15 16 17 18 19 21 20 23 21 23 25 25 25 23 25 26 25 26 26
46 48 50 49 47 45 41 28 26 17 14 24 24 23 21 19 18 16 15 16 15 16 16 16 18 18 18 19 21 23 24 24 22 22 24 25 25 24 23 24 27 26 29
44 47 48 43 43 44 42 41 33 36 36 28 27 26 23 21 19 18 17 18 18 18 18 18 20 19 20 22 22 23 22 22 20 22 25 25 26 26 27 26 28 29 31
35 37 36 37 41 40 40 42 45 26 13 43 35 31 26 25 20 18 19 21 21 21 20 19 21 23 24 25 25 25 25 27 30 28 27 27 26 27 27 27 29 32 38
23 26 29 31 32 34 35 36 42 34 25 46 40 35 32 27 22 20 22 23 23 22 23 24 26 26 26 27 27 27 27 29 30 29 30 29 26 27 29 30 32 32 36
14 18 23 23 25 26 28 34 42 33 29 36 38 35 31 28 24 21 22 22 25 26 24 28 27 26 25 25 29 27 28 28 27 26 24 27 29 32 34 35 38 36 37
10 14 17 17 18 22 26 31 37 29 28 36 37 30 26 25 26 23 25 25 29 27 28 27 24 22 23 24 26 26 23 24 23 23 25 28 29 31 30 29 32 26 32
5 8 9 12 15 15 23 30 36 27 30 34 34 25 22 21 23 28 29 35 38 25 26 25 21 22 23 23 22 21 21 21 23 24 26 28 26 24 23 20 22 26 31
8 9 12 13 14 16 25 32 34 25 29 34 32 29 22 18 22 22 29 27 25 21 25 21 23 22 22 20 19 20 22 21 21 23 25 20 19 20 17 17 22 23 32
13 11 14 15 18 21 26 28 24 22 21 22 23 21 16 19 27 23 21 17 18 19 20 22 22 20 20 19 19 21 19 17 20 22 16 16 18 19 21 24 26 26 30
10 12 15 15 19 19 22 24 18 16 20 20 19 19 22 21 24 20 19 15 15 16 19 19 21 19 19 20 21 19 16 17 20 17 15 17 21 23 25 28 29 29 31
10 12 14 18 19 19 20 19 14 13 12 13 12 18 19 19 16 18 13 12 12 15 20 20 20 21 20 19 16 15 16 19 19 17 18 20 22 22 24 28 29 28 32
12 16 16 15 16 15 19 18 18 16 14 16 16 14 12 13 13 10 10 11 16 20 19 20 19 17 14 11 12 14 17 16 14 16 17 18 20 21 23 26 25 25 29
16 17 15 13 14 17 18 20 18 16 12 13 12 10 9 11 11 11 13 17 19 18 17 16 12 11 8 9 11 12 11 12 14 17 17 18 18 20 22 24 21 21 27
11 8 10 12 13 13 19 24 22 14 11 9 6 9 11 11 10 12 15 15 15 14 12 11 9 9 9 10 10 9 10 14 16 17 17 16 17 18 20 19 19 21 26
12 8 13 13 7 8 13 20 14 11 9 7 11 11 10 10 10 11 11 11 11 10 11 10 9 11 11 8 7 10 13 15 15 15 13 13 14 16 17 18 17 23 25
6 10 14 8 11 9 12 15 16 14 14 14 12 10 9 9 9 9 9 8 8 9 11 11 9 8 7 8 10 12 14 14 13 11 10 11 13 15 16 17 17 19 20
7 10 12 8 7 7 6 7 11 13 13 14 12 12 11 10 9 8 8 7 8 8 8 7 6 7 8 9 11 13 12 9 7 7 8 9 11 13 15 17 17 17 18
5 8 8 9 7 6 7 6 8 12 13 11 12 12 11 10 10 9 9 8 7 6 7 7 7 7 9 11 12 9 6 5 4 4 6 9 11 13 14 15 16 16 15
12 9 8 6 6 6 7 8 10 11 10 12 13 12 11 12 10 10 9 8 8 7 8 8 7 8 10 10 7 4 3 2 3 5 7 8 10 12 13 14 15 15 15
11 10 9 8 8 8 9 10 10 10 10 10 9 11 12 12 11 10 9 8 7 8 9 9 9 10 9 6 4 3 2 2 3 5 6 8 9 11 12 14 15 16 15
7 6 7 7 7 7 8 9 10 10 8 9 9 11 13 12 11 12 10 9 7 8 9 9 9 10 7 5 5 4 3 3 3 4 6 7 8 9 10 11 12 14 15
4 4 4 3 5 7 8 7 8 8 8 8 8 10 12 14 14 14 13 10 8 8 9 9 9 8 7 6 6 5 5 5 4 4 5 6 7 8 9 9 10 11 13
1 0 1 2 2 3 5 6 7 7 6 6 6 8 9 10 11 13 14 13 11 10 9 10 9 9 7 7 6 5 5 5 5 4 3 4 5 6 7 9 10 9 11

GFSGL_850_spd_006.txt.gz
Wind_Speed
34 37 36 31 29 30 29 28 22 20 17 16 15 16 13 13 14 15 14 13 12 11 11 12 11 12 10 11 11 14 15 15 20 23 19 18 18 19 19 20 21 21 21
37 39 36 32 32 32 32 32 29 26 20 15 11 14 16 15 15 17 16 13 13 13 13 13 11 10 11 12 13 13 16 15 20 23 23 21 20 20 20 22 23 22 22
31 30 33 35 37 32 34 34 33 28 21 20 27 28 21 24 21 20 19 17 15 14 14 13 13 13 14 13 15 15 16 17 20 22 22 21 23 21 22 25 21 25 22
30 29 30 33 29 32 34 40 35 33 30 31 37 33 35 28 28 23 20 19 18 16 16 15 15 15 15 15 16 16 17 18 21 22 23 24 22 25 25 24 24 25 26
28 28 28 25 25 27 34 41 40 41 41 41 40 45 37 32 29 26 23 20 19 18 17 17 17 17 17 18 18 19 23 22 23 24 26 26 28 25 25 26 27 27 28
25 25 23 23 25 29 36 37 40 46 49 49 46 41 35 33 28 27 25 20 19 17 16 17 19 19 24 22 22 24 25 27 28 26 27 29 29 25 24 25 27 28 32
20 21 23 25 26 27 28 30 35 42 49 48 45 37 28 36 30 27 24 23 19 17 18 20 21 23 22 25 25 24 25 27 28 29 24 24 25 23 24 27 26 29 33
21 21 22 22 22 22 23 24 26 32 42 45 38 35 25 32 32 31 26 26 26 22 24 23 25 23 24 26 25 20 24 24 20 22 21 22 21 25 30 31 32 32 32
19 18 19 19 19 20 21 22 23 26 33 31 31 27 23 26 28 27 28 27 25 30 26 30 34 35 24 25 23 24 23 21 18 22 25 24 26 28 29 28 24 24 27
14 14 13 15 17 18 17 19 20 23 24 25 24 22 22 23 21 24 25 28 30 27 27 30 28 21 21 22 22 22 17 16 16 18 20 19 22 21 24 25 24 24 27
11 13 14 15 17 17 17 17 19 21 21 24 22 21 25 22 23 21 18 22 24 26 23 19 14 16 16 20 21 21 18 20 21 20 18 20 20 19 19 19 20 22 26
13 15 16 17 18 19 20 18 20 19 23 20 18 22 22 23 25 22 22 20 22 22 17 10 18 19 19 20 20 21 19 19 15 16 18 19 19 20 20 20 24 24 25
15 16 15 15 16 16 15 16 18 18 17 18 19 18 15 19 23 23 19 20 18 15 10 15 18 19 19 19 20 17 16 12 14 15 18 18 18 19 21 22 23 27 26
12 14 15 16 16 13 12 11 12 12 11 13 15 18 17 16 14 17 16 15 13 13 15 16 16 16 16 15 17 11 8 10 13 15 15 16 17 18 20 21 24 24 24
15 15 15 13 11 11 12 13 10 13 12 11 12 13 9 11 11 11 11 10 9 10 11 8 9 9 10 10 9 9 10 10 11 12 15 17 17 18 19 20 22 21 23
14 13 10 9 8 8 8 14 15 12 11 10 11 11 11 12 13 13 13 12 12 14 12 9 10 11 10 10 10 10 10 11 11 13 14 16 17 18 19 20 19 19 22
12 11 8 10 10 11 10 10 8 15 12 10 10 12 12 11 12 11 12 12 13 13 7 9 9 9 9 9 10 9 9 11 14 12 14 15 15 16 18 18 19 19 21
9 7 8 11 12 9 9 10 10 10 8 12 13 12 11 11 10 9 9 11 8 8 6 7 8 9 9 9 8 8 10 11 11 12 13 12 13 14 15 17 18 19 21
4 8 12 12 9 8 9 10 12 11 10 10 13 13 12 10 9 10 10 6 7 6 7 7 8 8 7 7 8 8 10 10 11 9 9 10 10 12 13 15 17 19 19
9 13 13 7 8 8 9 9 9 10 12 13 11 10 13 12 9 8 8 7 6 5 6 6 7 7 7 7 7 8 8 8 8 8 8 8 9 11 13 15 16 18 17
7 9 12 10 9 8 7 7 7 9 9 11 11 12 13 8 9 9 8 8 7 7 7 6 8 7 7 6 7 7 6 6 6 6 7 8 9 11 12 13 15 16 16
10 11 10 8 7 7 7 7 8 9 9 10 10 15 15 13 10 10 10 10 9 8 8 7 7 7 7 8 7 5 5 5 5 6 7 8 9 10 11 13 14 15 15
8 8 7 7 7 8 8 9 9 10 11 11 13 13 14 13 11 12 12 10 10 9 8 6 7 7 7 6 6 5 5 5 4 5 6 7 8 10 10 12 13 14 15
7 7 6 6 6 7 9 10 10 11 10 11 12 12 12 11 13 14 13 13 11 9 8 7 7 8 9 6 6 5 5 6 5 5 7 7 8 10 10 10 11 12 13
5 5 5 5 5 6 9 10 11 11 10 11 14 13 13 13 14 13 12 11 11 10 9 8 8 8 7 8 8 8 11 8 7 7 5 7 8 9 9 9 10 10 11
4 4 4 4 5 6 8 9 10 11 12 11 12 12 12 12 12 13 12 12 12 11 11 9 9 8 8 8 8 10 8 8 8 7 6 4 7 7 6 8 9 8 9

GFSGL_850_spd_009.txt.gz
Wind_Speed
35 32 31 31 30 30 33 32 31 29 25 24 26 20 19 17 12 9 12 14 11 11 12 14 13 12 8 8 9 9 10 12 16 18 18 18 19 20 20 19 19 21 23
34 35 37 35 33 33 33 34 33 35 32 30 28 25 25 17 14 12 11 14 14 14 16 15 14 11 13 10 8 12 12 15 16 19 21 20 19 21 21 24 23 21 22
35 34 35 36 38 37 35 34 36 34 35 32 31 30 27 22 20 15 16 17 16 17 17 17 15 14 15 14 15 15 14 15 15 19 20 22 23 24 23 23 27 24 25
33 34 36 39 39 37 37 38 37 38 37 37 34 34 32 27 24 17 17 19 19 18 19 18 17 18 17 17 16 18 18 17 17 21 21 22 22 26 23 22 27 27 25
36 34 37 37 35 35 36 40 37 38 39 40 38 38 38 34 25 21 20 22 21 19 18 17 17 16 16 18 19 19 22 22 22 22 24 25 26 24 24 28 29 26 25
36 38 35 35 34 36 38 37 38 38 36 40 42 41 41 35 24 23 25 21 19 22 19 17 17 20 23 24 23 23 25 28 30 29 25 26 28 27 23 24 22 25 28
38 35 34 32 35 36 36 36 39 37 34 41 46 44 42 33 26 26 25 21 18 18 20 20 20 20 23 24 26 24 24 24 26 26 29 27 26 22 22 25 24 26 29
35 34 32 34 32 32 32 34 34 29 31 39 43 43 27 25 26 26 27 23 23 24 23 22 22 22 22 24 24 31 24 22 25 26 23 26 23 23 26 28 32 31 28
28 30 31 30 28 26 29 28 28 26 29 30 33 37 29 23 22 22 26 25 24 24 24 22 21 24 27 31 31 23 23 25 23 22 23 25 28 26 21 19 19 21 25
27 26 25 26 25 24 22 24 22 21 23 19 21 21 21 20 20 23 23 21 22 23 24 26 23 27 31 27 22 22 21 19 17 18 20 21 23 22 22 23 25 22 25
23 23 23 22 22 19 19 18 18 18 18 19 20 19 19 19 16 18 18 17 17 19 22 22 23 21 18 17 19 21 22 21 22 22 20 18 19 20 19 18 15 20 24
25 22 22 20 18 19 17 15 17 16 16 16 16 17 14 17 18 21 17 17 23 24 20 19 20 21 18 21 21 21 21 21 21 17 16 18 19 19 19 19 25 24 23
23 21 21 21 21 18 17 18 17 15 13 12 12 12 15 15 17 19 19 23 22 19 21 19 21 19 19 20 20 17 15 18 13 14 16 17 18 18 21 20 21 22 23
21 19 19 19 19 17 17 15 12 10 10 11 10 11 9 7 8 8 11 13 13 18 22 20 20 17 17 14 13 12 12 6 11 14 15 14 17 18 19 18 20 21 23
15 16 19 15 15 13 14 12 12 12 11 8 6 5 7 8 8 8 8 9 10 13 12 9 10 9 11 14 13 11 9 11 13 13 14 16 17 17 18 18 19 21 21
18 16 15 15 15 12 13 14 13 10 12 12 8 6 8 8 7 8 11 14 14 14 12 11 13 13 14 13 12 12 12 13 13 13 14 15 16 17 17 18 17 18 20
14 14 13 13 12 13 12 11 12 15 10 9 7 9 11 7 10 11 12 13 12 12 11 10 12 12 12 11 12 12 13 12 15 15 14 16 15 15 16 16 17 18 19
15 16 14 14 14 13 12 12 9 7 8 10 12 10 10 9 9 9 9 9 9 8 6 9 9 9 11 11 11 10 11 12 12 13 13 13 13 13 14 15 16 17 19
11 11 12 13 14 12 11 10 9 9 8 11 7 14 13 11 11 10 8 7 8 9 9 8 8 8 10 10 9 10 11 11 12 13 9 10 11 12 13 14 16 17 19
10 15 14 13 10 10 10 9 10 9 9 13 6 9 14 13 10 10 10 8 8 9 8 8 8 7 8 9 9 9 10 10 10 9 9 9 10 11 12 14 15 17 18
9 13 14 10 9 10 9 9 9 9 10 10 13 19 15 7 8 12 9 9 9 9 10 9 7 8 8 8 8 9 9 8 8 8 8 8 9 10 12 13 14 15 17
10 9 11 11 11 10 9 8 8 8 7 7 10 10 12 10 11 12 12 12 10 10 9 10 8 8 8 9 10 10 8 8 7 7 7 8 9 10 11 12 13 15 16
10 10 10 9 9 9 8 8 8 7 8 8 7 9 13 11 12 13 14 14 12 10 10 9 8 7 9 9 8 7 6 7 6 6 6 7 8 10 11 12 13 14 15
8 9 8 8 8 7 9 8 9 8 9 8 8 9 8 9 12 12 12 11 10 12 10 10 9 9 9 10 8 6 7 9 6 4 7 5 8 10 10 11 12 12 14
7 8 8 7 10 8 10 10 10 9 8 10 13 15 14 11 10 10 9 15 17 11 11 10 10 10 10 9 7 11 16 16 13 10 7 6 7 10 10 9 12 11 12
5 5 5 6 7 7 8 10 10 10 11 11 11 12 12 11 11 14 13 14 14 13 11 11 10 11 10 9 9 15 14 11 10 9 7 3 6 7 8 7 10 9 10

GFSGL_850_spd_012.txt.gz
Wind_Speed
40 38 39 39 37 36 36 34 33 31 28 28 27 28 23 22 21 19 18 15 15 12 10 16 16 15 15 13 10 9 9 8 12 16 18 15 18 18 17 18 21 21 19
42 40 40 39 39 39 40 39 37 34 35 34 36 32 29 26 25 22 20 23 22 17 14 13 17 18 11 10 9 7 10 13 16 18 14 17 17 19 20 24 22 23 22
42 43 43 41 41 41 42 41 40 38 40 40 39 38 35 33 32 26 21 20 21 20 19 15 14 16 17 15 14 15 17 16 15 17 21 19 24 22 23 23 23 24 25
43 44 44 44 44 42 42 41 39 42 42 42 43 41 37 37 35 30 25 22 20 21 21 18 16 16 18 19 20 19 17 16 17 15 19 20 20 26 26 24 20 22 30
45 44 45 44 43 43 41 42 42 40 42 40 41 40 38 38 37 33 29 25 21 21 21 19 18 21 22 22 20 18 18 19 21 25 26 28 30 26 27 32 35 37 36
46 47 42 42 42 42 42 40 38 38 35 36 38 38 40 40 37 34 28 24 22 24 23 22 21 18 19 19 23 22 24 25 25 25 28 28 29 30 32 31 27 28 31
46 46 44 42 44 42 39 37 37 36 34 38 37 37 38 37 32 27 25 23 23 25 22 23 19 20 21 21 23 24 26 25 28 31 26 27 28 29 27 26 27 28 32
45 43 44 43 43 41 38 36 36 37 39 38 36 35 37 36 32 35 30 26 28 25 24 22 19 20 21 22 25 25 26 27 29 25 26 27 26 26 25 27 32 28 25
44 41 42 38 40 39 36 35 36 37 34 33 30 31 34 30 28 33 31 31 28 31 29 24 24 23 23 22 24 28 28 29 23 23 22 23 25 27 27 22 23 24 27
43 44 37 35 32 35 34 32 30 27 28 26 24 25 26 23 26 23 19 21 27 29 26 24 24 23 23 23 25 28 26 22 20 19 22 24 25 27 17 20 24 29 28
37 34 34 31 32 29 28 26 23 21 18 19 19 16 15 15 19 19 19 20 23 24 21 25 27 18 21 21 19 19 19 21 22 23 26 24 18 18 18 14 14 15 19
30 28 29 30 29 27 26 21 17 17 18 17 15 15 16 18 18 18 16 16 17 18 19 8 13 13 16 22 19 19 20 22 24 22 19 13 19 14 17 20 22 26 25
27 27 27 26 24 21 20 17 17 17 16 15 13 11 14 15 15 16 17 19 19 18 19 20 21 20 21 17 17 19 16 15 18 11 11 16 18 19 21 21 19 20 22
29 28 26 25 24 19 19 19 18 17 14 12 12 12 11 12 12 10 11 16 21 18 15 15 19 17 14 15 12 11 12 10 10 11 17 15 14 17 18 19 21 22 25
27 25 23 22 22 22 21 19 16 15 13 11 8 7 9 8 7 4 4 8 11 12 14 9 8 9 10 14 16 11 8 8 8 10 15 16 18 16 17 18 20 21 20
23 21 22 22 21 22 19 19 17 15 14 11 11 11 11 12 9 5 2 1 3 4 8 11 11 13 14 10 7 5 6 8 7 12 14 18 16 17 17 18 17 18 20
20 23 21 16 15 17 16 15 16 16 15 15 15 13 9 7 7 5 4 5 8 10 12 13 9 11 9 10 9 9 10 12 14 15 12 13 14 14 15 16 16 18 19
20 17 18 17 13 13 16 10 10 14 16 15 14 11 11 10 8 6 7 8 9 8 5 3 7 6 5 8 9 9 10 11 11 12 15 16 9 13 14 15 16 18 20
21 18 17 13 15 16 17 15 16 11 16 11 12 11 12 12 8 8 9 9 7 7 7 6 4 6 6 7 9 9 11 12 11 11 10 9 10 11 13 14 16 18 19
14 13 16 15 17 15 13 13 13 14 22 14 10 7 10 12 10 9 10 11 9 5 6 7 7 9 10 11 11 11 10 8 8 8 9 10 9 11 12 14 16 18 20
10 11 14 15 13 13 13 12 13 14 13 13 11 8 4 8 8 7 8 8 6 6 7 9 9 7 9 10 10 8 6 6 7 7 8 8 9 10 12 14 14 17 19
12 11 11 10 13 15 14 11 11 8 7 14 15 13 10 10 7 9 12 14 13 9 10 9 9 8 6 8 11 12 10 5 7 8 7 6 7 8 13 10 15 16 17
11 10 8 13 16 19 9 9 8 8 7 8 6 7 15 13 9 9 12 11 10 13 12 13 9 8 7 11 12 9 5 5 7 6 6 6 5 9 11 11 14 15 14
10 6 10 10 12 10 8 12 6 6 9 5 8 9 10 10 12 14 16 14 14 13 12 13 11 7 9 10 10 7 8 11 13 13 9 7 2 8 8 12 13 11 17
8 3 6 7 8 9 10 8 5 15 9 10 7 9 10 11 14 15 17 15 15 15 19 18 13 8 10 13 12 12 13 15 17 17 13 9 2 5 11 9 11 9 13
3 7 8 2 3 5 2 6 4 4 11 11 12 13 15 14 12 13 15 15 15 11 12 11 10 12 11 9 11 12 13 14 13 10 9 6 2 5 10 5 8 10 10

GFSGL_850_spd_015.txt.gz
Wind_Speed
43 40 37 37 40 38 39 38 39 31 32 32 29 27 27 25 22 23 20 18 18 18 18 16 16 19 23 18 17 14 10 8 9 11 14 15 15 15 14 17 20 22 23
44 42 39 36 39 40 39 43 37 41 36 30 32 32 30 29 26 27 24 23 20 20 20 19 20 19 18 17 20 19 15 14 15 17 18 18 15 14 18 18 17 19 21
45 43 41 39 39 42 42 41 43 41 41 40 38 37 38 35 32 30 27 25 24 23 22 22 20 23 25 20 18 19 18 16 16 20 22 21 19 17 17 17 21 22 22
47 45 44 43 41 42 41 41 43 42 41 42 42 41 40 39 37 34 30 28 26 27 26 25 23 21 21 23 20 19 16 17 19 22 22 20 23 23 26 25 25 26 29
47 47 46 44 43 42 43 42 41 44 45 41 41 42 42 40 38 36 33 30 31 27 24 25 26 24 22 22 23 21 21 22 22 24 25 24 27 29 29 26 28 30 29
46 46 44 44 44 44 45 43 41 40 41 44 41 40 41 39 38 38 37 32 32 28 23 24 26 27 27 26 25 21 21 23 25 24 26 27 31 28 24 26 29 30 28
49 46 44 43 43 44 44 43 41 39 36 35 34 35 36 36 33 35 36 31 31 29 25 24 27 29 26 24 24 24 23 25 25 24 25 31 26 25 25 27 25 25 29
52 48 44 44 42 41 41 42 38 36 35 33 32 33 33 34 36 34 30 28 28 26 25 27 29 26 25 24 23 21 24 23 23 26 29 26 24 23 23 24 26 28 25
55 51 49 45 45 45 43 40 37 36 34 33 32 28 30 33 32 30 27 28 31 30 26 30 28 25 23 23 21 23 24 25 25 28 23 22 22 23 24 23 25 29 29
57 54 52 47 48 48 44 39 38 34 29 26 28 28 28 26 24 22 21 25 26 28 26 28 28 22 23 21 23 24 24 26 24 20 21 22 23 23 24 26 24 29 28
54 52 49 44 47 44 40 39 35 27 24 27 26 25 22 18 18 16 13 17 19 21 21 21 27 26 25 23 21 23 23 21 19 21 24 24 22 16 14 13 13 16 18
40 41 38 38 37 37 37 28 27 26 25 22 17 17 15 12 14 15 15 18 18 18 19 20 20 17 23 21 17 18 16 16 17 17 21 17 9 11 11 15 18 19 17
38 34 35 35 35 33 29 27 24 22 20 17 16 14 13 15 15 15 16 17 19 18 17 18 15 14 14 16 15 13 12 9 12 15 10 8 11 15 16 19 21 20 21
37 36 35 33 29 26 23 22 21 19 17 16 15 14 14 15 15 14 13 14 17 18 17 18 16 11 10 9 7 8 10 10 10 9 12 11 14 18 20 20 18 21 23
35 34 31 30 29 28 23 20 17 16 15 14 15 14 12 13 10 9 8 8 12 15 17 15 10 5 3 5 10 12 12 12 9 8 10 14 18 18 19 17 16 17 17
25 27 30 31 28 23 22 22 19 15 16 16 14 14 10 7 9 8 6 5 7 9 11 9 7 4 6 11 8 5 6 7 9 13 13 15 16 16 16 14 15 15 18
30 29 27 27 25 25 22 20 19 21 18 14 14 14 10 10 10 10 8 6 7 7 7 8 7 7 8 6 4 2 4 5 8 12 13 16 18 18 11 13 14 15 17
22 23 23 23 20 21 19 20 19 19 20 21 18 15 14 13 13 13 10 8 8 7 8 7 7 6 8 8 8 10 14 14 13 15 18 18 8 7 10 12 13 16 17
19 18 19 19 18 19 21 19 17 19 19 16 16 19 15 13 15 12 9 10 10 10 5 8 9 12 12 12 13 14 15 16 17 14 5 6 6 9 10 11 13 15 17
15 12 12 13 18 21 21 17 16 14 13 18 19 17 13 14 17 12 10 12 10 11 3 11 12 10 9 11 13 14 14 14 9 5 6 6 7 9 10 11 14 14 17
17 18 15 10 21 24 24 20 19 15 16 20 17 12 8 10 16 14 11 10 8 9 10 8 11 13 14 13 12 10 9 6 5 7 9 10 12 8 9 12 11 12 17
10 11 14 21 22 17 16 13 16 14 24 27 20 15 11 13 15 11 9 10 9 12 10 14 14 14 13 10 11 11 10 14 8 11 13 14 12 5 9 11 8 14 16
17 12 18 16 12 17 16 15 12 11 18 19 18 13 15 17 14 12 11 13 12 14 15 13 15 15 12 13 13 15 14 11 10 12 13 15 10 7 6 6 10 14 12
15 11 12 18 18 19 17 14 11 8 8 12 13 12 19 20 18 16 12 11 14 13 12 12 16 17 16 14 16 15 15 10 14 15 14 11 8 7 4 6 9 11 12
8 11 14 16 11 10 10 7 5 3 10 11 9 10 15 21 20 16 13 12 15 13 13 15 17 17 16 11 13 14 14 14 15 16 17 14 7 5 4 8 7 5 11
5 5 7 7 14 8 1 4 6 4 11 11 13 16 13 16 18 13 13 9 9 12 11 13 13 16 14 12 13 12 9 9 12 13 11 9 9 9 4 7 5 6 7

GFSGL_850_spd_018.txt.gz
Wind_Speed
51 48 44 39 37 36 37 35 38 35 29 32 29 26 24 23 23 21 19 19 19 15 16 17 15 17 23 21 19 16 17 15 14 11 13 15 16 16 15 14 16 16 16
51 48 45 39 37 38 38 39 39 40 36 33 32 31 29 27 26 25 23 22 23 20 18 18 17 17 20 25 24 21 18 17 19 17 18 19 19 19 19 20 19 20 21
53 50 46 43 40 39 39 39 41 42 43 40 37 37 35 32 30 29 27 24 24 24 21 21 19 19 21 21 23 21 23 23 23 23 22 21 20 18 20 22 19 21 25
55 51 49 45 42 40 38 41 41 43 45 44 45 41 38 34 34 33 31 29 27 27 26 24 23 23 23 22 24 25 24 23 23 23 23 23 22 19 21 24 26 24 25
58 54 52 45 41 41 41 40 42 42 44 45 42 42 41 39 38 36 35 34 33 30 29 27 26 24 24 24 23 24 27 25 25 25 24 24 26 25 24 26 24 22 24
59 57 52 47 45 44 44 42 41 42 42 43 44 42 41 41 39 37 36 37 38 32 29 29 27 24 23 25 25 24 25 25 24 23 23 30 30 27 28 23 24 25 27
59 58 54 49 47 46 45 44 42 40 38 38 41 41 39 39 38 35 35 36 37 32 27 31 29 25 23 25 27 26 26 24 26 25 26 27 28 26 26 22 24 24 25
58 57 55 51 48 46 45 44 41 38 36 33 31 31 31 33 33 30 32 33 31 29 23 28 30 27 23 24 23 26 25 23 25 24 26 28 27 27 23 21 23 26 26
57 57 55 52 48 46 45 43 38 34 33 30 27 28 27 29 30 31 33 34 27 24 18 23 25 26 25 23 23 23 23 24 23 23 26 28 26 21 20 22 22 23 28
57 55 56 54 49 45 43 41 34 31 27 27 30 26 26 22 26 27 30 19 19 18 20 25 27 27 29 26 21 22 23 25 22 22 25 21 21 22 22 24 22 20 22
55 57 58 56 51 44 42 39 36 31 29 28 29 25 23 23 22 19 18 18 16 17 20 22 24 23 21 22 21 22 21 21 21 21 20 20 22 22 17 12 9 13 18
58 56 57 57 52 47 44 42 36 32 28 28 23 20 25 22 18 17 16 15 15 17 17 17 16 13 17 20 23 21 18 17 15 13 14 18 15 8 8 13 15 18 20
50 50 49 50 49 48 47 40 36 32 30 28 27 29 22 16 17 16 15 17 14 16 15 15 13 12 13 13 12 16 17 12 9 10 10 11 10 11 14 17 20 23 23
45 48 48 48 47 46 40 37 36 33 32 30 27 21 20 19 19 17 16 14 15 15 14 14 13 12 14 14 13 11 9 9 10 12 13 12 13 15 16 20 23 23 19
45 44 46 43 42 43 43 41 33 31 26 25 22 20 19 18 15 13 13 12 11 12 14 15 15 12 9 8 8 9 11 13 15 12 13 13 15 16 18 19 17 14 17
52 35 37 38 39 39 29 18 18 22 21 21 19 17 16 11 14 15 14 10 10 11 12 13 12 12 7 8 10 11 11 12 12 14 16 16 14 15 16 16 13 14 16
43 43 42 34 24 21 12 19 33 25 23 21 20 21 18 18 18 15 11 11 10 11 12 12 12 10 8 9 8 9 9 10 12 15 16 17 18 19 19 12 12 15 15
26 25 25 33 31 29 34 32 23 25 27 27 22 20 19 17 14 13 14 13 12 13 11 10 9 11 10 9 9 8 8 8 9 11 13 15 12 9 9 11 13 13 15
16 24 27 26 26 28 27 24 22 22 22 22 22 21 18 15 14 14 15 12 12 13 12 11 12 13 12 10 9 9 11 10 11 13 13 8 9 10 11 11 11 12 15
16 17 21 23 26 29 25 24 22 19 16 15 18 19 17 18 18 18 16 14 14 14 15 13 17 15 12 9 9 11 13 12 10 9 8 9 10 11 13 12 10 14 14
21 18 16 19 20 21 20 20 18 15 16 17 22 19 15 12 15 19 17 14 14 14 15 11 12 12 12 12 13 14 11 9 10 9 10 9 11 14 13 12 11 12 13
7 11 11 15 15 17 19 20 17 17 18 23 24 22 20 16 18 19 15 14 14 15 13 8 11 12 14 12 12 12 12 13 13 13 12 12 14 15 15 13 10 10 12
9 7 7 12 15 18 21 18 21 24 21 20 22 22 20 19 20 19 17 15 14 16 18 16 14 14 13 14 15 13 15 16 15 12 10 11 14 15 13 12 10 11 12
8 10 13 16 15 17 18 18 16 16 17 19 19 20 20 18 19 20 20 15 16 21 21 20 18 15 14 14 15 15 14 15 13 11 12 12 12 11 11 10 10 9 9
5 4 5 7 13 16 14 12 14 10 11 13 17 18 16 16 20 21 17 14 13 17 20 19 16 16 17 13 12 13 12 11 12 13 15 16 15 13 12 10 9 7 8
9 9 11 10 10 14 13 11 11 12 11 14 17 17 14 17 23 21 19 15 13 14 15 16 14 15 16 14 11 8 8 8 9 11 13 13 12 13 14 11 8 8 7

GFSGL_850_spd_021.txt.gz
Wind_Speed
60 56 53 48 45 43 36 32 35 36 37 33 30 28 27 24 22 22 19 18 20 19 16 17 16 17 18 22 20 19 18 16 16 15 15 13 12 13 12 14 14 16 17
60 58 54 48 47 46 41 36 37 38 38 37 31 30 29 28 25 24 23 22 21 21 21 19 19 18 18 18 21 23 20 19 18 17 16 16 17 16 16 17 19 21 23
56 58 57 52 49 48 44 39 38 41 40 40 38 33 34 32 29 27 26 26 25 22 22 23 20 20 19 18 19 22 22 21 22 22 20 21 20 17 17 17 18 22 25
56 56 56 55 47 48 46 41 41 41 43 42 41 40 35 33 31 29 29 29 28 28 27 25 24 23 21 20 19 19 21 22 21 23 23 22 19 20 20 23 25 26 25
56 56 56 55 48 46 49 45 42 42 43 43 43 41 40 36 34 33 32 32 31 32 33 28 25 25 24 23 22 21 20 21 23 23 22 23 24 25 24 26 27 28 25
53 55 55 55 51 49 50 48 45 44 43 44 44 44 43 40 40 38 37 36 33 34 35 30 27 25 26 25 23 22 22 20 21 24 23 24 23 24 27 27 27 30 26
51 53 55 56 53 52 51 50 48 47 44 43 43 42 42 41 39 37 36 35 33 33 31 28 27 25 26 26 23 21 22 24 23 21 25 23 24 23 24 27 28 23 24
53 52 53 55 54 53 53 52 50 49 47 43 41 41 38 37 36 34 31 33 32 27 24 24 23 23 25 25 24 23 23 23 25 22 23 24 29 23 25 26 24 24 24
55 53 54 55 56 54 54 53 53 51 47 44 39 35 33 33 28 25 28 33 32 27 25 19 18 20 20 22 23 24 23 21 19 18 21 22 21 24 22 21 23 24 27
57 55 54 55 56 56 53 52 52 51 47 42 34 31 29 25 17 19 19 25 28 26 19 19 20 19 19 21 23 22 23 19 17 17 20 20 20 17 21 23 21 19 16
54 56 55 54 55 55 54 52 50 49 42 36 33 30 25 20 20 20 22 23 26 16 16 15 16 18 21 24 24 18 16 13 15 16 17 14 11 16 17 12 9 12 16
54 56 54 54 54 53 53 51 47 42 38 38 36 29 26 27 28 27 24 22 19 17 16 16 17 18 18 16 12 12 15 15 15 15 10 8 11 14 9 10 12 15 19
52 54 55 51 50 50 52 52 46 40 41 43 38 33 34 31 24 21 18 17 19 17 17 18 17 15 12 11 10 11 14 15 15 12 8 11 12 12 12 13 15 19 22
54 54 54 55 52 49 50 51 51 44 45 42 38 38 38 27 25 19 17 20 22 23 20 18 15 12 11 10 10 12 12 13 13 12 12 12 13 13 15 16 19 21 23
49 51 53 52 49 46 43 40 41 42 40 38 36 33 33 35 29 23 23 25 24 20 18 18 16 14 13 11 12 12 12 12 12 14 16 15 14 17 18 16 18 19 17
41 46 45 47 49 46 43 41 35 33 38 28 18 12 19 19 20 23 23 20 19 18 19 17 15 14 11 12 12 12 12 12 11 13 15 17 18 18 15 16 18 14 15
33 34 41 47 46 40 39 33 30 20 8 2 6 19 20 22 24 25 22 20 18 17 17 15 15 14 15 12 12 10 8 7 9 12 14 16 16 15 18 18 10 14 16
34 37 40 37 39 41 32 35 22 31 29 41 35 33 25 21 23 21 21 19 19 19 16 15 16 16 13 9 10 8 5 5 8 10 11 13 16 17 12 11 13 15 14
25 21 21 16 16 25 18 21 21 30 50 37 33 30 28 25 23 21 19 17 18 17 17 16 15 13 10 9 9 8 6 8 10 11 12 14 13 11 11 13 13 13 15
30 15 40 38 16 28 17 29 36 41 37 32 34 34 32 31 29 25 22 20 17 16 16 14 13 10 10 11 10 8 6 8 8 7 8 9 11 10 11 14 15 15 15
32 23 23 25 30 33 31 35 39 37 37 36 33 31 25 22 20 20 22 20 16 14 12 10 9 11 11 11 10 6 5 8 9 9 9 10 10 10 11 15 15 15 15
27 24 26 28 27 28 29 29 29 27 27 27 27 26 24 21 19 19 21 17 15 12 9 9 8 11 9 8 8 7 7 7 9 10 11 10 11 12 13 16 14 14 14
14 15 18 21 22 24 23 23 24 25 27 28 27 28 26 22 18 20 19 17 18 15 13 14 11 12 11 8 9 10 9 8 11 12 10 9 11 13 16 15 14 14 14
12 13 14 14 15 17 22 20 18 18 17 18 20 22 22 20 19 19 20 20 19 17 17 18 15 15 14 8 12 10 9 13 15 11 8 9 12 13 14 14 13 13 13
12 11 9 6 6 9 11 12 12 13 13 13 13 13 18 17 16 18 20 21 17 16 18 17 18 17 15 11 12 8 6 11 8 8 8 11 13 16 17 16 13 13 12
2 4 4 5 5 6 8 13 13 12 11 10 11 12 14 18 15 18 20 20 18 16 15 16 18 15 12 11 11 9 7 4 6 5 7 10 13 13 13 13 12 12 11

GFSGL_850_spd_024.txt.gz
Wind_Speed
56 54 52 51 48 46 43 37 35 31 33 33 33 32 28 25 23 22 21 19 17 17 17 16 15 15 17 19 19 18 16 15 15 13 13 12 11 10 10 10 11 12 13
56 55 55 51 51 49 46 40 37 35 33 34 33 35 32 28 26 25 23 22 21 19 18 20 19 18 18 17 18 19 19 17 16 14 13 13 13 12 13 12 11 11 14
55 56 55 54 53 51 47 43 40 38 35 35 35 37 35 31 30 27 25 24 23 22 21 20 19 20 20 20 17 18 17 18 18 18 18 17 16 16 15 15 13 14 19
52 53 55 54 53 51 47 45 43 40 39 37 39 39 39 34 32 30 28 28 26 25 25 24 21 22 22 21 21 18 17 16 18 19 18 18 18 17 17 19 22 22 23
46 50 54 54 52 48 49 45 43 42 42 40 40 42 41 40 36 33 31 30 27 26 27 28 28 25 23 23 24 21 19 18 18 18 20 21 19 18 20 21 24 25 27
45 46 48 51 51 49 49 47 44 42 43 42 42 44 44 43 41 38 32 30 27 28 28 29 30 28 24 22 23 22 21 22 21 20 19 20 20 19 21 23 23 25 26
45 46 47 48 49 49 49 49 48 44 44 45 44 44 46 46 43 38 35 34 31 30 29 28 30 28 25 25 21 23 22 21 21 21 23 23 22 20 23 26 29 23 24
45 47 48 49 47 47 49 50 50 48 46 47 46 44 43 44 42 38 37 35 32 30 28 26 23 22 21 24 24 23 21 20 20 20 21 19 19 18 23 18 21 21 20
46 48 48 49 48 46 48 49 52 52 49 49 48 46 43 42 41 38 36 37 35 31 26 25 25 22 20 20 23 23 19 20 20 20 17 17 17 18 18 18 16 18 22
50 50 49 50 49 48 46 46 49 52 51 50 49 48 43 41 38 37 35 36 36 32 30 26 22 18 18 19 21 18 18 19 18 16 15 15 16 16 14 14 16 16 14
47 46 48 48 48 47 43 43 46 48 50 51 49 48 43 42 38 35 35 38 36 33 29 24 21 18 18 18 16 17 18 18 15 14 14 14 14 8 10 10 7 7 9
41 43 43 46 46 48 48 43 39 45 47 49 48 47 44 42 39 37 37 37 32 29 25 23 21 19 18 17 18 17 17 16 16 15 14 13 9 7 7 7 8 8 11
30 35 38 40 43 44 49 43 46 41 43 42 42 40 42 44 44 42 40 35 31 27 23 23 22 19 17 16 15 15 16 17 18 17 13 12 9 9 7 7 10 11 13
25 28 32 36 39 43 44 41 44 44 50 37 43 51 48 46 44 41 36 31 26 26 27 26 21 18 14 13 15 16 15 15 17 14 13 13 12 12 11 11 13 14 16
16 24 26 33 37 40 42 42 44 38 41 37 40 34 39 40 46 41 29 25 24 27 30 25 20 17 16 17 19 17 16 15 15 13 13 14 14 13 12 13 13 14 16
24 20 22 28 34 40 42 39 38 40 36 38 37 41 23 3 2 16 10 21 24 27 29 20 17 18 19 21 19 17 16 15 13 13 13 13 13 13 14 13 13 14 11
32 35 28 31 37 42 41 36 35 28 41 45 33 31 23 26 13 11 21 27 23 29 27 17 17 20 20 20 18 17 14 13 11 10 11 12 14 15 13 12 10 7 10
26 29 35 37 40 43 41 39 35 37 36 25 16 14 21 24 19 20 34 33 33 30 22 22 23 22 21 21 19 16 15 13 9 9 9 12 15 14 11 8 7 8 10
9 14 24 41 46 51 50 50 44 28 14 13 18 22 33 34 30 32 39 33 30 26 25 24 23 23 23 19 16 16 13 10 8 8 9 12 14 12 8 6 6 9 9
3 5 11 2 3 52 45 33 14 7 11 2 12 36 34 39 40 37 32 30 28 26 23 22 22 22 20 18 17 15 11 9 7 7 9 11 12 10 9 7 7 7 8
3 11 15 15 18 6 16 25 25 21 27 25 27 33 34 36 36 35 31 29 26 22 22 21 18 18 18 18 16 13 10 7 4 6 7 8 10 10 10 9 8 8 7
2 11 7 10 1 8 18 24 30 29 26 29 39 36 28 25 29 29 28 27 24 21 17 15 16 17 17 17 14 11 10 6 5 5 5 7 10 10 10 10 10 9 7
12 9 8 11 12 12 14 19 21 24 29 26 26 29 27 25 24 24 25 26 23 21 19 17 15 18 19 17 12 8 9 10 4 7 9 10 10 11 10 11 10 8 7
12 10 10 11 10 10 12 16 18 18 19 22 26 29 28 27 26 24 25 25 24 22 21 21 21 18 20 19 15 10 11 11 5 7 10 10 10 11 10 9 8 8 8
17 17 15 10 6 9 7 8 11 15 16 18 24 27 25 23 22 24 28 27 26 26 24 23 23 20 17 19 13 9 12 11 4 6 8 8 9 11 12 12 10 8 7
6 8 15 15 11 11 8 2 4 8 12 15 17 21 25 23 22 21 25 29 27 26 24 21 19 20 17 17 14 12 13 10 5 2 1 3 8 11 12 11 10 8 6

GFSGL_850_spd_027.txt.gz
Wind_Speed
47 46 46 47 47 46 47 41 36 34 32 31 31 30 31 28 25 25 24 21 21 20 20 19 16 15 17 17 16 16 16 15 11 9 10 9 10 11 10 9 9 8 9
52 50 49 46 47 47 46 43 38 37 36 34 33 34 33 33 30 29 28 26 24 23 20 21 19 19 18 18 18 18 17 17 15 13 11 13 11 12 13 12 12 11 11
53 54 53 51 51 51 48 45 42 39 38 36 35 36 36 36 36 33 30 29 27 25 24 22 19 20 21 21 20 19 17 16 17 16 12 14 15 16 16 16 14 14 16
48 51 53 54 54 53 50 48 46 43 41 39 38 36 37 37 38 37 34 33 31 29 27 26 25 25 23 22 22 21 20 17 17 18 15 13 15 14 17 15 15 19 21
47 47 47 47 49 51 51 50 49 47 44 41 40 40 38 39 40 40 38 36 36 33 31 30 30 28 25 23 22 23 23 21 20 18 15 16 14 18 19 18 21 21 23
46 45 44 44 45 47 47 47 46 48 47 45 45 43 42 42 44 44 41 39 39 37 36 33 32 29 27 28 22 22 24 25 24 19 17 17 18 18 20 18 15 16 19
47 45 46 45 45 44 45 46 45 47 47 48 47 47 46 45 46 45 42 43 41 39 37 35 34 32 27 29 25 25 25 24 24 23 23 21 20 20 19 20 18 20 18
46 46 46 47 45 45 46 47 46 47 49 50 49 49 48 47 47 46 44 43 45 42 40 38 37 32 28 27 28 29 28 25 24 22 20 18 16 16 18 17 18 18 21
41 43 46 45 47 47 48 48 48 48 50 52 51 50 50 50 49 46 43 44 47 46 42 40 38 31 31 27 29 30 28 26 23 19 19 17 15 16 16 17 16 16 13
40 42 43 42 43 44 48 48 48 50 51 52 53 51 50 49 50 45 41 42 48 47 43 43 36 33 31 28 30 30 28 26 23 20 18 16 15 15 16 16 12 12 12
36 37 40 41 42 41 40 40 43 45 47 50 55 53 51 50 48 45 42 41 47 46 44 43 36 33 31 27 29 28 26 23 21 18 16 15 14 14 14 11 10 7 7
31 32 33 36 36 35 37 36 34 42 37 37 42 52 55 53 49 47 42 42 43 44 44 38 35 31 28 28 27 24 22 20 20 18 16 15 15 13 12 9 7 8 9
18 19 21 24 28 32 35 35 38 39 30 29 39 41 38 47 51 47 42 39 39 39 36 31 29 29 28 26 24 23 23 22 22 19 16 14 13 12 12 11 10 9 11
12 15 17 20 23 26 31 31 36 36 38 46 52 45 44 42 44 45 46 42 39 38 33 31 30 28 26 25 24 24 24 24 22 16 14 14 16 15 13 12 11 11 13
5 9 14 19 23 27 30 33 39 43 45 44 52 45 49 36 40 46 37 33 28 33 27 26 26 27 29 25 25 27 26 23 19 16 15 16 18 15 14 13 13 13 11
9 11 14 18 21 26 33 37 41 42 43 39 41 44 46 38 42 39 33 31 33 12 15 28 28 30 26 27 28 29 24 21 18 15 16 18 16 14 13 14 14 13 10
12 14 14 14 17 26 35 38 42 44 38 42 46 47 40 40 37 39 42 23 11 29 35 30 32 32 32 31 31 28 23 21 17 17 18 17 14 13 15 13 13 11 9
12 16 16 14 12 22 29 38 44 44 49 44 52 46 38 37 32 28 22 19 26 43 45 37 39 33 33 30 29 23 21 20 18 19 17 16 14 15 15 12 11 9 9
11 12 12 13 12 15 22 30 40 49 46 48 47 43 37 32 28 27 21 27 40 48 38 40 35 29 30 29 25 23 20 19 20 18 17 16 16 16 11 10 9 11 11
19 19 8 11 12 7 6 2 2 9 32 59 54 46 41 42 41 39 38 41 39 45 39 32 29 29 28 27 25 21 21 22 20 16 15 15 15 12 10 11 9 9 10
6 9 15 10 7 4 10 6 7 3 8 13 18 34 36 40 41 44 46 41 35 36 36 34 30 29 27 26 23 23 24 22 18 16 14 14 14 12 12 12 9 9 11
16 9 3 7 10 7 4 3 6 13 20 24 21 26 32 31 33 37 33 31 30 32 29 27 27 26 26 25 24 25 22 18 14 12 13 11 11 13 13 13 10 11 11
20 16 7 4 2 6 7 4 6 14 14 19 28 30 28 27 26 28 30 29 29 28 26 26 24 24 23 23 24 20 17 15 12 12 10 8 10 13 14 12 12 12 11
16 16 17 17 12 13 12 6 6 9 10 15 20 22 22 21 25 27 27 27 27 26 25 23 23 22 22 24 24 21 16 15 16 14 11 9 11 16 15 13 12 12 11
18 15 13 11 10 12 14 14 12 11 11 10 13 19 19 19 19 21 24 26 26 27 25 23 21 19 21 25 25 22 20 15 17 14 11 13 14 16 15 14 13 11 11
15 17 16 16 17 14 10 9 4 4 4 3 6 8 13 16 15 15 18 24 26 26 26 25 25 23 22 24 23 20 17 18 17 13 9 11 14 15 14 14 14 12 12

GFSGL_850_spd_033.txt.gz
Wind_Speed
48 50 48 48 46 44 45 42 38 33 32 30 26 27 26 27 27 27 25 21 24 22 20 20 21 19 15 13 13 12 11 10 11 10 9 10 16 16 11 15 12 12 11
49 51 51 49 48 48 48 47 45 43 40 38 34 34 29 27 29 30 29 25 26 23 23 24 25 22 23 20 16 16 14 14 14 14 12 12 15 14 14 17 14 12 12
44 46 51 53 53 53 51 47 47 45 44 42 40 40 38 33 33 34 33 33 30 30 28 27 27 27 26 22 24 18 17 19 16 15 14 13 14 13 13 12 14 13 14
41 43 46 51 56 55 52 51 46 45 44 44 43 42 42 40 38 38 39 38 37 35 34 32 30 30 28 26 25 24 22 18 16 15 14 14 15 15 14 12 13 13 12
42 44 48 49 49 49 49 51 48 48 47 44 44 45 45 44 41 44 42 43 41 41 37 37 33 32 30 28 26 26 22 23 17 16 15 16 16 17 16 14 11 12 15
41 46 44 45 45 47 47 49 49 47 48 48 49 48 48 46 43 43 43 43 43 42 41 39 39 33 33 33 30 26 26 24 22 17 18 20 19 17 16 16 15 14 15
42 41 44 44 45 46 46 47 53 54 51 52 51 50 50 51 50 47 45 44 43 45 44 43 41 34 36 36 34 31 32 31 27 27 25 23 19 16 18 18 19 18 16
40 44 45 48 46 44 45 47 48 48 51 52 52 52 52 54 52 51 50 48 49 47 45 45 43 42 39 39 36 36 36 37 32 30 32 26 24 26 23 20 20 21 19
39 45 48 44 44 44 50 49 48 46 47 50 50 51 54 56 55 53 52 53 54 53 50 44 43 43 44 45 40 37 35 34 34 31 34 30 28 25 23 15 14 17 13
34 41 42 42 43 47 47 46 45 44 45 41 44 48 52 54 56 57 55 55 56 57 56 51 47 47 45 46 46 42 40 37 31 32 34 31 34 28 25 24 17 16 15
29 32 38 41 44 45 43 41 41 41 38 40 42 44 46 50 54 58 59 59 61 59 56 52 56 57 52 51 50 47 44 36 32 31 33 30 29 28 26 26 26 22 16
29 29 33 36 35 34 40 39 38 36 36 40 40 42 45 49 52 57 61 63 63 61 52 50 46 49 49 48 47 44 40 33 32 32 30 23 22 23 21 21 21 23 16
26 29 29 30 33 32 31 33 31 34 34 35 38 41 46 46 47 51 56 58 60 62 59 43 40 43 44 44 43 43 39 35 35 32 28 24 27 20 21 20 20 19 24
22 25 24 25 27 25 27 25 28 28 32 36 35 39 39 36 38 38 42 46 52 57 59 53 43 44 46 44 41 37 39 37 36 30 30 22 31 26 26 25 21 22 21
16 16 17 17 20 21 23 23 25 27 28 28 31 32 32 35 37 36 37 39 44 51 54 50 46 47 45 46 41 39 43 37 33 28 37 28 22 27 26 25 21 16 15
11 11 12 13 13 14 16 17 25 27 25 31 32 32 30 30 35 32 36 40 42 37 41 56 57 50 52 54 49 47 42 31 31 39 37 26 31 29 24 23 21 20 18
7 12 8 11 10 11 12 13 15 19 23 24 34 35 40 45 46 39 32 38 43 42 41 50 58 58 58 55 52 47 44 46 46 43 34 29 26 27 25 24 22 19 18
5 6 4 4 5 5 7 9 11 13 15 16 23 29 35 41 48 48 45 46 43 43 46 50 56 59 56 54 50 47 42 40 43 40 33 30 30 26 27 24 24 20 18
7 5 4 3 3 2 4 7 9 13 17 19 22 25 27 29 32 35 40 40 52 52 53 49 56 55 52 50 49 44 37 33 38 37 33 29 29 29 25 23 22 21 19
9 11 8 5 5 4 4 3 4 5 7 9 11 17 19 19 22 25 26 31 34 41 54 56 57 57 54 41 41 32 36 34 36 36 31 30 29 27 23 23 20 19 19
5 3 10 7 7 6 5 6 6 6 6 8 10 10 13 12 11 14 15 9 14 24 32 32 52 50 41 35 38 39 36 39 37 32 31 30 28 24 23 20 18 19 17
10 7 4 5 6 7 9 9 7 7 6 8 9 14 12 7 3 3 2 3 5 8 3 4 4 23 31 38 39 36 33 30 29 31 31 29 26 25 20 19 19 18 18
12 10 7 5 5 7 7 7 7 6 6 8 9 6 9 8 9 13 12 12 10 8 9 16 19 29 28 30 33 32 31 30 32 32 29 26 22 21 19 19 19 19 19
10 16 13 11 11 11 12 12 14 13 12 11 9 10 13 13 10 6 7 11 9 6 12 14 18 25 24 26 28 30 32 30 31 28 24 20 19 20 17 17 18 19 19
15 16 11 10 14 12 12 12 11 14 12 7 5 6 9 7 9 9 8 4 6 8 14 16 13 12 21 25 25 24 25 26 22 20 20 18 18 17 17 17 18 19 19
17 16 13 14 15 14 15 16 15 14 11 10 7 5 4 6 6 10 6 4 6 9 10 11 15 16 18 18 20 22 25 28 26 22 17 15 16 15 15 17 19 19 18

GFSGL_850_spd_036.txt.gz
Wind_Speed
43 44 46 46 44 44 43 37 36 33 26 28 21 28 27 24 25 29 28 24 24 25 25 23 22 19 19 17 17 16 14 12 13 10 6 12 12 13 14 16 15 15 14
47 43 46 46 46 44 44 45 40 38 36 33 32 28 32 28 26 30 33 31 28 30 29 28 27 24 21 21 20 18 17 16 15 16 15 11 14 15 14 16 19 13 15
44 44 45 48 48 47 46 45 46 43 41 38 38 39 37 35 31 29 32 33 34 34 34 30 29 29 25 23 26 26 22 21 22 24 22 19 17 18 15 12 11 11 8
41 42 44 46 49 48 47 47 46 47 46 45 44 44 43 41 39 35 32 33 33 35 34 36 33 32 31 27 27 28 28 23 22 25 23 17 17 18 19 16 16 11 12
44 44 45 44 46 47 47 48 48 48 49 48 47 45 44 43 43 40 38 38 38 37 38 37 39 38 36 32 29 29 29 31 28 24 22 20 20 20 22 21 17 11 11
45 48 46 44 44 47 47 48 49 50 49 48 48 47 47 48 46 43 41 40 41 41 41 40 43 44 42 39 35 31 31 31 32 32 28 25 23 17 22 20 16 15 16
46 47 47 47 47 47 48 48 49 50 50 50 49 49 50 50 49 46 43 43 44 44 44 44 43 46 45 44 41 36 32 33 33 30 31 27 25 23 23 23 23 24 25
41 44 44 46 48 49 49 50 51 50 52 52 50 50 50 52 52 51 48 47 49 49 48 47 46 45 46 46 45 43 40 40 40 37 35 31 29 29 29 27 26 26 26
42 44 45 44 46 48 51 52 49 49 51 52 52 52 54 54 54 54 52 51 53 55 55 53 52 49 48 47 47 48 45 42 41 41 37 35 32 30 30 31 30 25 23
34 37 46 45 48 51 50 50 48 49 49 48 51 53 55 56 57 58 56 53 55 59 59 59 58 58 54 50 49 49 50 47 40 40 43 41 40 36 32 32 24 21 18
31 32 33 40 45 48 46 43 45 45 43 44 45 46 49 51 53 54 55 54 60 60 61 57 61 62 60 54 50 51 54 47 45 41 40 39 42 40 38 37 32 28 22
29 32 35 34 38 42 42 42 40 41 41 43 42 44 47 48 49 49 50 53 55 50 49 48 48 51 55 55 54 53 53 50 49 46 40 41 40 38 34 34 31 28 29
26 29 32 30 32 34 33 39 37 37 39 41 42 41 41 41 37 40 43 45 46 50 56 50 42 40 46 46 52 55 53 53 50 46 47 44 39 35 24 19 21 18 27
24 22 27 28 29 30 33 29 33 34 36 38 32 33 33 29 29 29 33 34 35 40 42 48 55 52 39 45 49 52 56 58 56 51 50 43 34 26 21 20 29 25 25
22 21 22 22 23 26 27 28 26 26 30 29 30 29 27 25 24 30 29 33 35 37 36 38 43 53 57 59 50 54 57 62 62 54 49 44 33 30 20 31 32 31 29
14 15 16 17 18 20 19 19 28 20 21 26 28 24 21 23 26 29 29 29 27 36 42 41 44 47 51 55 62 53 56 61 57 53 41 35 33 23 36 38 35 35 30
16 16 14 14 16 19 13 19 15 15 25 29 27 29 32 35 37 40 43 44 42 36 35 40 45 50 51 50 57 61 61 60 61 54 49 38 23 38 42 39 36 32 26
14 16 11 13 11 10 15 15 14 11 9 14 26 30 33 34 34 37 40 42 43 43 44 42 48 49 49 50 49 53 54 59 56 54 51 28 38 42 44 40 38 34 30
11 10 7 12 12 11 11 13 12 14 14 15 18 20 23 22 23 24 24 28 29 29 33 35 40 44 53 58 56 56 62 61 60 55 50 32 44 41 41 38 33 31 28
11 15 12 8 10 7 6 5 4 4 4 6 8 9 12 14 13 15 17 19 13 13 21 30 38 38 43 46 54 62 61 52 60 50 48 37 41 40 40 35 35 31 31
10 13 11 10 10 8 7 6 5 4 3 2 8 13 14 10 9 10 13 11 13 16 20 26 24 26 31 35 44 55 50 59 40 42 38 37 38 39 35 31 30 31 29
10 11 12 13 12 12 11 9 7 8 6 5 4 9 13 11 9 13 14 14 16 18 17 16 13 12 12 12 6 14 20 19 27 32 36 36 36 37 34 30 29 29 24
12 11 13 13 12 11 8 11 11 10 10 10 8 9 14 16 15 15 16 14 14 12 13 13 11 11 6 2 5 8 15 20 26 27 33 35 35 33 31 30 25 25 26
18 22 17 16 16 18 16 10 13 11 9 9 9 10 13 14 15 16 20 20 12 7 8 4 2 3 2 4 9 15 19 18 23 25 28 30 30 30 26 23 26 23 23
20 18 16 10 10 11 10 11 12 12 10 9 8 7 6 6 8 10 9 11 19 8 7 3 2 2 2 7 10 17 17 23 22 27 27 28 24 24 25 27 24 23 23
19 19 19 21 16 14 18 19 19 17 16 14 13 10 8 6 5 8 10 7 4 5 7 7 6 3 3 7 14 15 17 19 19 25 22 23 23 19 24 23 19 22 20

GFSGL_850_spd_039.txt.gz
Wind_Speed
44 41 43 43 44 44 41 35 37 32 28 31 26 24 28 26 24 22 25 26 26 23 22 21 19 21 22 20 18 19 18 16 17 14 11 13 19 20 16 14 14 15 13
45 42 42 42 43 44 44 39 37 36 35 31 34 33 25 28 27 22 21 26 28 28 28 26 24 21 24 26 26 24 22 22 20 17 15 14 20 19 16 15 14 15 18
45 43 40 41 44 43 44 43 41 39 38 38 33 32 33 28 29 28 24 25 27 31 30 29 28 27 27 29 30 29 27 24 24 24 21 21 20 20 21 21 17 13 12
45 43 43 41 42 43 42 41 42 43 42 41 40 38 35 36 34 32 31 29 26 28 34 35 34 35 34 30 30 31 32 30 29 28 27 27 27 25 23 22 21 18 12
44 43 44 43 40 40 42 43 41 43 45 43 43 43 43 43 42 41 40 38 36 33 32 37 39 39 39 36 33 32 33 37 36 35 33 31 28 26 29 26 25 22 16
46 43 40 40 40 41 42 42 44 44 44 45 47 47 47 48 48 47 44 43 41 40 39 38 39 40 41 41 39 36 34 35 40 41 39 37 33 30 25 26 25 26 24
47 45 44 41 41 40 38 41 44 44 44 45 46 47 49 50 49 49 47 46 44 44 43 41 41 42 43 44 44 43 41 37 39 40 44 42 36 31 28 27 28 27 28
48 49 49 47 45 41 40 41 42 43 45 45 46 46 46 47 47 48 48 47 48 47 47 45 45 43 43 43 43 45 46 44 42 41 43 44 41 34 32 31 31 29 28
47 48 48 49 47 46 46 45 44 43 44 46 47 47 48 49 47 45 44 46 50 53 53 52 51 51 50 46 45 47 45 47 43 42 42 42 41 37 37 32 33 33 34
48 48 45 44 47 48 48 47 46 46 45 44 45 47 49 50 50 48 46 46 49 53 54 57 58 58 56 54 52 50 52 53 46 44 45 46 45 45 43 43 39 37 37
37 42 43 42 43 44 44 45 47 48 47 46 46 46 47 47 46 46 45 45 50 51 53 56 56 57 55 54 54 55 61 56 54 51 47 46 50 49 48 45 41 40 38
33 32 31 33 36 42 44 42 43 44 45 46 45 46 46 45 43 42 41 43 43 46 50 53 49 49 49 47 47 55 57 55 57 59 55 54 52 51 52 52 52 45 40
22 27 34 33 32 33 34 38 41 40 40 42 43 43 43 41 40 38 37 36 35 38 42 45 46 47 48 45 45 47 47 56 60 55 55 56 60 53 46 50 54 43 38
17 23 26 24 28 28 28 31 33 38 40 38 38 40 39 36 32 31 31 28 28 31 32 33 34 36 41 47 50 51 49 52 59 63 58 53 55 52 50 48 50 43 35
24 22 24 23 25 25 24 24 31 29 31 31 34 34 33 30 28 26 26 28 28 29 32 36 38 41 43 47 50 54 57 54 55 62 57 54 58 56 52 44 43 33 24
16 18 24 24 24 21 20 20 26 19 23 22 22 22 29 27 30 30 29 26 25 28 30 31 33 37 42 48 49 51 51 51 55 59 56 59 56 54 51 40 35 28 25
15 17 18 20 18 17 19 19 19 27 26 19 24 31 31 30 30 30 32 34 36 39 40 41 43 41 42 44 47 52 55 54 52 54 51 57 59 57 52 45 31 32 38
9 14 18 23 20 25 26 22 25 24 22 26 30 27 25 27 30 32 35 36 36 37 38 36 37 37 36 34 40 48 51 54 54 57 53 59 61 61 53 44 36 31 46
6 12 13 17 15 19 20 20 17 16 14 12 11 13 15 18 22 23 23 24 21 19 18 15 15 22 27 33 41 47 47 49 53 55 54 57 61 67 55 34 33 38 33
7 8 8 8 10 10 10 11 10 10 7 5 3 4 6 8 10 10 10 9 9 8 9 15 18 21 22 18 18 26 36 47 51 48 44 48 48 23 25 33 21 42 34
12 12 10 11 13 14 14 12 11 9 6 2 2 5 5 4 5 7 7 7 9 12 14 15 17 20 22 26 28 26 36 27 34 43 39 29 35 25 9 26 31 28 29
13 11 15 16 16 16 16 14 11 7 8 7 6 7 8 7 4 7 8 9 11 13 12 13 13 15 18 18 15 17 10 14 11 11 10 10 14 13 10 21 28 30 31
23 26 21 17 14 10 7 7 9 13 13 10 7 7 8 7 7 7 10 12 12 9 10 11 12 14 14 12 10 9 9 8 4 1 8 10 13 19 28 32 30 29 30
19 18 19 16 10 9 13 15 14 12 11 10 7 6 5 7 7 7 6 9 10 8 13 12 13 11 12 10 8 8 7 6 6 6 7 12 16 21 23 24 28 26 27
21 20 17 15 14 14 16 17 14 13 11 8 7 6 6 8 9 10 9 8 9 8 6 6 5 7 10 8 5 4 4 9 8 5 6 8 13 18 21 23 19 18 21
33 25 21 20 20 21 19 18 17 15 15 14 12 10 8 6 7 7 8 9 8 5 6 4 4 4 5 5 6 3 2 3 6 7 10 14 16 19 19 18 18 16 16

GFSGL_850_spd_042.txt.gz
Wind_Speed
48 45 43 42 41 43 41 37 33 32 31 30 27 23 24 22 22 23 21 19 23 23 23 22 22 22 23 23 20 19 19 19 20 18 19 14 18 19 21 21 19 17 15
43 42 43 42 40 42 44 41 37 35 34 31 31 30 22 24 26 27 26 24 24 26 28 27 26 25 26 27 26 25 24 22 24 23 20 22 21 21 22 23 21 17 16
45 44 43 41 40 40 42 43 41 38 37 36 31 34 35 34 27 29 30 27 24 26 28 31 31 29 29 28 29 31 30 28 28 28 27 24 24 22 23 25 26 22 17
45 43 42 40 39 37 37 41 42 40 39 40 39 38 36 37 36 31 29 29 27 25 26 28 31 33 33 31 30 32 33 34 33 34 32 30 30 27 26 27 29 27 24
44 42 41 38 37 36 35 37 39 40 40 41 41 41 42 39 37 35 35 33 32 30 29 29 30 31 32 34 34 34 33 34 38 38 38 37 36 35 36 34 33 32 29
46 42 37 38 39 38 36 34 35 38 39 40 44 44 45 45 45 43 40 38 38 38 37 36 36 36 36 36 37 36 36 35 38 39 44 45 43 41 40 39 37 35 37
45 43 41 38 39 38 37 37 37 36 36 40 41 43 46 47 46 46 45 45 45 44 44 42 42 40 39 39 39 38 39 39 39 39 44 47 47 46 43 42 41 39 36
44 41 39 39 37 35 37 36 36 36 37 38 39 42 43 45 45 45 45 46 48 48 47 45 45 43 43 42 42 43 43 44 44 43 46 47 48 45 43 42 42 40 37
44 43 40 39 38 36 37 36 32 33 35 36 36 38 41 42 40 40 39 41 45 47 47 47 47 48 47 45 45 46 47 51 48 47 46 46 45 46 45 42 45 42 43
45 45 43 41 41 41 37 36 34 35 36 35 37 37 37 38 36 36 35 36 41 42 44 47 49 51 50 48 49 49 52 57 54 54 53 51 49 49 48 48 48 49 48
42 44 43 43 43 41 39 39 39 39 40 40 40 40 40 39 38 36 34 35 38 38 41 44 45 46 47 48 49 51 55 50 51 55 56 55 52 53 55 54 55 54 53
37 40 40 38 38 40 40 40 40 40 42 42 42 42 42 41 39 37 34 33 32 36 40 41 41 41 41 42 43 47 48 46 47 51 56 58 55 57 57 52 57 60 58
18 32 35 37 37 36 36 36 36 37 39 41 41 42 41 40 38 34 32 30 30 31 32 35 36 37 39 40 40 42 44 45 48 51 55 59 61 61 61 55 57 56 61
9 13 17 23 26 32 34 34 34 34 34 36 38 38 37 36 34 28 27 27 26 27 28 27 28 30 34 38 41 45 46 49 53 55 57 57 58 61 62 62 57 59 59
15 15 20 24 26 26 29 32 32 31 30 30 29 29 30 29 27 28 27 26 24 23 25 27 28 28 32 35 38 42 45 48 51 54 58 60 59 59 57 56 61 61 55
13 15 17 22 24 22 26 30 30 28 27 26 23 22 23 23 24 24 23 22 23 24 23 24 27 29 32 33 35 38 40 44 49 49 50 55 56 55 55 58 57 59 54
15 17 15 16 19 22 24 25 26 28 28 26 25 24 25 23 23 19 18 19 21 24 28 32 34 35 34 34 34 35 37 40 43 48 51 56 49 55 55 62 55 59 53
11 13 13 17 19 22 23 26 27 26 23 26 23 21 22 25 25 25 25 24 24 25 27 28 27 26 25 25 26 27 26 28 31 40 47 56 52 49 59 59 54 57 55
7 8 9 14 20 22 24 23 23 23 22 20 20 20 21 21 20 20 19 17 16 16 15 14 16 17 18 20 20 20 27 27 31 36 37 38 41 46 51 59 55 43 40
3 8 7 7 9 11 14 18 22 23 20 16 12 9 8 8 9 9 8 7 7 8 9 10 13 15 18 20 22 25 24 22 28 34 32 21 22 18 2 16 25 20 5
4 10 11 12 13 15 17 19 19 17 14 12 9 8 8 7 6 5 5 6 8 8 9 11 12 14 16 19 19 18 18 18 28 30 23 26 5 6 11 6 3 7 25
12 17 16 15 18 20 20 19 18 15 12 10 10 9 8 6 5 4 3 3 5 5 7 7 9 11 14 15 15 14 15 15 17 16 10 9 4 3 8 8 6 16 26
23 19 17 18 18 18 18 16 15 14 13 10 9 7 8 6 4 3 3 6 6 3 5 5 7 7 7 9 11 12 13 13 11 10 8 6 1 4 10 17 20 25 24
29 31 28 24 19 15 14 16 17 14 13 10 7 5 6 6 6 5 3 4 6 7 9 8 7 7 7 5 7 6 7 7 7 7 5 6 8 13 17 19 20 21 21
32 29 28 25 22 19 17 17 15 13 11 10 9 7 6 6 5 6 6 5 4 4 6 7 9 8 9 9 6 4 4 2 4 6 5 2 6 12 13 12 12 14 16
27 25 25 23 22 17 19 18 16 14 13 12 10 9 8 7 6 5 6 6 7 7 6 6 6 6 5 7 7 5 3 2 2 0 2 2 5 9 11 12 13 14 16

GFSGL_850_spd_045.txt.gz
Wind_Speed
55 54 52 49 43 38 36 36 34 33 32 29 28 25 23 21 20 21 20 19 21 21 20 22 23 23 24 24 24 23 21 21 23 19 19 18 20 18 18 19 19 21 20
54 52 52 48 45 42 37 35 34 34 33 33 29 27 25 24 24 24 24 24 23 23 23 25 26 24 26 26 26 27 26 25 26 27 23 22 22 22 22 23 24 25 24
56 53 52 51 48 44 39 35 34 35 35 33 32 31 30 29 26 27 27 28 27 26 24 25 28 29 30 29 28 29 31 30 31 32 32 28 26 27 27 28 28 29 29
54 53 52 50 49 43 37 35 34 34 36 36 36 36 33 32 32 30 27 27 30 30 28 25 25 28 31 32 32 32 31 32 34 37 39 38 35 32 33 34 32 31 32
52 51 49 46 44 40 37 35 34 34 35 38 38 39 39 37 34 35 35 34 30 29 28 28 27 27 26 27 30 32 34 35 36 37 40 42 42 41 42 39 38 37 36
49 47 44 44 41 39 36 36 34 33 34 36 40 42 41 43 41 39 36 35 34 34 34 32 32 32 32 32 32 33 35 36 39 41 43 46 46 46 45 44 44 44 45
48 46 46 44 43 39 35 36 36 35 33 36 37 40 43 43 42 41 40 40 40 39 39 38 39 39 39 39 39 40 41 43 44 44 46 47 49 48 45 46 48 51 51
45 45 44 44 42 39 38 38 36 36 35 34 35 38 40 41 41 42 41 42 44 45 45 44 45 44 44 42 41 43 43 45 45 45 48 51 50 49 51 48 47 49 49
42 41 42 41 39 38 37 35 33 34 34 34 34 35 37 37 37 36 37 40 44 45 45 45 44 44 42 41 41 43 43 47 44 44 46 47 47 49 51 52 54 51 55
37 37 36 35 34 35 33 30 28 30 29 28 29 29 29 30 29 28 30 33 37 39 39 41 42 42 41 40 42 43 47 49 45 45 46 45 43 43 43 52 56 53 56
34 38 35 33 33 33 32 32 30 30 30 31 31 31 31 31 29 27 26 28 31 32 34 36 37 35 34 33 34 37 42 38 38 40 42 46 49 51 47 43 43 48 57
31 32 33 36 36 37 35 34 34 33 33 34 34 35 35 34 33 30 27 28 27 31 33 33 32 29 30 31 31 32 33 33 37 41 44 47 48 51 51 52 51 46 50
24 26 27 26 30 34 35 33 33 33 34 33 34 35 35 34 32 30 27 25 24 27 26 27 26 26 28 29 29 30 32 36 41 44 48 51 51 50 55 58 59 60 58
8 9 15 21 24 26 28 29 31 30 30 31 32 31 30 29 29 26 24 21 20 22 22 23 23 24 24 26 29 31 34 36 37 40 43 46 49 52 54 55 60 60 63
8 7 8 11 13 18 21 24 26 28 30 29 28 25 23 23 20 19 20 21 21 21 22 24 25 26 25 24 25 27 31 35 38 39 40 43 47 48 49 48 54 52 56
13 15 14 14 15 18 19 22 25 27 28 27 25 23 21 19 17 17 18 18 18 20 22 21 21 21 22 25 30 32 32 32 31 34 36 39 45 47 48 49 52 53 58
11 15 19 18 17 17 19 21 23 25 27 26 24 22 20 18 17 17 16 16 16 16 17 17 21 25 26 26 25 24 24 21 20 22 25 30 35 42 48 48 39 39 48
11 8 8 12 13 14 14 16 19 21 23 24 23 21 21 21 21 19 18 17 18 19 19 19 20 20 19 18 17 19 22 23 23 23 26 33 39 39 34 32 35 41 39
5 3 1 3 7 10 12 14 17 19 20 20 18 18 19 19 17 17 18 16 14 15 14 13 14 13 13 14 16 19 20 21 20 21 26 29 36 30 26 27 25 26 24
6 3 2 2 2 4 11 16 18 20 19 17 16 13 13 14 13 13 13 12 12 11 10 9 9 10 12 13 15 17 17 16 19 21 24 25 26 21 15 9 14 10 11
10 7 4 2 3 5 8 11 17 20 18 16 14 13 12 11 10 9 9 9 9 9 9 8 9 9 9 11 12 13 14 15 16 17 17 18 16 9 2 11 11 3 8
13 10 8 6 5 7 11 15 17 16 14 12 11 11 11 11 9 7 6 4 4 5 5 5 6 7 9 11 13 12 12 13 13 12 11 15 17 15 12 11 11 4 5
20 15 13 12 10 12 14 15 16 15 14 13 12 12 11 11 10 8 5 3 1 1 3 4 6 8 9 9 9 11 13 12 9 8 8 8 11 12 10 5 4 8 8
21 23 23 21 20 20 19 20 18 15 13 12 11 10 10 9 8 6 4 2 2 4 6 8 9 10 10 9 10 10 11 12 9 7 5 7 7 5 1 4 7 10 12
25 29 29 27 27 26 24 23 21 18 15 14 12 10 8 8 7 6 4 3 2 3 4 5 5 6 8 10 14 11 10 11 8 6 4 3 5 3 3 2 4 6 7
28 31 32 30 29 26 24 24 24 22 19 16 14 13 10 8 6 5 4 5 5 6 6 7 8 9 9 10 11 12 13 11 9 8 7 6 5 6 7 7 6 7 8

GFSGL_850_spd_048.txt.gz
Wind_Speed
51 49 48 46 44 43 42 36 31 28 27 28 24 22 21 21 21 22 21 19 19 19 19 18 17 17 19 20 20 21 20 20 24 22 20 18 19 18 18 20 20 22 22
51 49 48 46 45 45 44 39 33 30 29 29 27 26 26 24 23 23 22 21 20 20 19 21 21 20 21 21 23 25 25 25 28 30 27 25 25 24 25 25 24 24 26
51 49 47 47 46 46 45 41 36 32 31 30 30 30 29 28 27 25 24 24 23 23 22 21 21 22 25 25 25 26 26 26 29 34 36 34 33 30 31 32 31 31 30
49 48 47 46 45 42 41 41 38 35 31 32 33 32 32 30 30 28 27 26 26 27 26 27 26 25 24 25 28 30 30 31 33 36 38 40 39 37 37 40 40 38 37
47 47 46 45 43 41 41 39 39 37 34 32 34 35 34 34 33 32 30 29 28 27 26 26 27 26 24 23 25 26 27 30 33 36 40 42 43 44 43 42 45 44 46
43 43 43 43 43 42 40 39 38 37 36 35 36 36 37 37 36 34 33 33 33 32 32 31 30 29 28 27 28 29 31 33 35 37 40 43 44 44 45 45 44 44 49
39 38 39 41 42 41 39 39 38 38 36 36 36 37 38 39 37 36 36 36 36 36 35 35 34 34 33 33 33 34 37 39 39 40 45 48 49 48 47 49 49 49 51
39 41 40 40 39 40 40 40 38 37 37 36 36 35 36 38 38 37 37 38 41 42 41 40 40 40 40 39 39 41 43 43 42 40 42 46 46 46 46 48 47 49 50
41 38 37 37 37 37 38 37 37 36 35 36 35 34 35 34 34 35 36 40 42 44 44 44 44 44 43 42 42 43 42 42 40 40 40 41 41 40 35 36 44 47 52
38 37 36 35 35 35 33 34 33 33 33 34 34 34 33 31 29 29 30 34 39 40 40 41 41 40 38 36 37 37 41 40 36 34 35 34 33 34 33 33 36 42 49
34 33 30 30 30 29 29 30 32 31 30 29 28 27 27 25 23 22 24 28 30 32 34 34 34 31 29 28 29 30 32 28 28 30 32 35 36 40 44 42 38 42 45
28 27 27 27 28 29 28 27 27 27 27 27 27 26 26 25 24 23 23 26 26 30 31 31 29 26 25 24 24 26 26 26 26 30 34 36 39 43 43 47 49 51 53
27 25 23 22 24 26 26 26 26 26 27 27 28 28 27 25 23 22 21 22 23 27 27 24 21 20 20 22 22 23 24 28 31 35 37 38 37 39 40 40 43 47 52
20 21 20 20 20 21 22 23 25 25 26 26 26 26 24 22 20 18 18 19 20 22 21 19 22 22 23 23 23 26 30 31 25 28 31 35 38 38 40 37 39 40 44
12 11 11 13 18 21 24 24 24 25 23 25 25 23 23 22 15 12 13 15 16 16 19 22 23 24 25 26 25 22 21 24 28 30 32 33 32 32 33 36 40 42 42
8 9 10 10 12 14 18 22 23 24 24 25 26 23 19 17 14 14 15 15 15 17 19 21 21 22 21 20 20 22 26 28 27 26 23 23 26 30 34 36 40 39 36
5 9 12 13 14 15 17 20 21 22 23 24 24 21 18 17 16 15 14 14 13 16 19 20 18 17 17 20 24 25 24 21 20 21 22 23 26 29 32 34 32 34 38
8 5 7 12 16 17 18 19 19 20 18 17 19 19 18 17 15 15 16 17 17 15 15 15 17 19 22 21 20 19 18 16 16 17 18 19 22 26 27 26 24 29 31
9 4 2 4 7 11 13 15 15 15 13 12 12 12 14 14 17 16 15 14 13 15 14 16 18 18 16 15 14 14 14 14 15 16 18 20 19 20 19 14 17 23 26
7 5 4 3 4 7 12 16 14 15 15 14 13 13 13 12 13 14 13 12 13 13 14 13 12 12 11 11 11 11 11 12 14 14 16 18 15 16 14 14 19 21 16
7 7 7 6 4 7 9 13 18 17 17 16 16 15 15 13 12 11 11 12 13 13 12 11 11 9 9 9 8 9 11 11 12 13 14 15 15 14 16 20 21 14 10
10 10 9 8 8 11 10 11 14 15 16 15 15 14 13 12 11 11 10 10 9 9 9 8 8 8 8 6 6 7 10 11 12 12 12 13 12 13 14 15 16 16 10
16 14 13 14 12 13 13 13 16 18 18 17 16 15 13 11 11 11 10 9 8 8 7 6 5 5 5 5 6 9 11 13 14 12 11 11 11 9 9 10 11 8 8
11 15 17 20 20 18 18 19 19 18 18 17 15 13 12 12 13 12 10 8 7 5 3 2 1 1 3 4 6 9 11 10 10 8 9 11 10 8 5 6 6 4 3
12 14 20 24 24 24 23 23 22 20 18 15 14 16 16 15 14 13 12 10 8 6 5 3 1 1 3 4 6 8 8 9 11 9 8 8 9 8 5 3 3 4 1
17 18 22 26 27 28 28 27 25 23 20 20 19 18 17 16 14 12 10 9 7 6 4 3 3 4 5 6 8 10 10 10 11 11 11 10 9 9 9 9 9 8 10

GFSGL_850_spd_051.txt.gz
Wind_Speed
45 45 46 45 43 39 36 32 31 29 24 22 22 24 23 22 21 20 18 17 17 16 17 17 15 13 14 16 17 18 18 19 21 19 21 21 20 19 19 20 21 22 23
45 44 44 44 43 42 39 35 32 31 28 25 25 26 25 26 24 23 21 21 21 19 18 19 19 18 17 17 18 20 21 22 24 29 27 29 29 26 27 28 28 28 28
49 47 45 45 44 43 40 38 34 32 32 29 29 29 29 29 27 26 24 23 23 21 19 20 19 19 19 19 21 23 24 25 26 30 33 32 35 34 33 34 35 34 35
49 50 49 48 44 42 40 38 35 34 33 33 31 31 31 31 30 29 28 27 26 24 23 23 23 23 23 22 23 25 26 28 30 33 36 33 33 35 37 37 39 37 39
46 46 46 43 42 41 40 37 33 32 33 34 33 33 32 33 32 32 31 30 30 29 28 27 27 26 26 25 26 27 26 27 27 25 27 28 29 26 30 34 38 40 42
46 44 41 40 40 41 40 39 36 33 33 34 36 35 34 35 34 33 32 33 32 32 31 30 29 28 27 26 26 27 29 31 32 33 32 32 40 40 37 38 35 34 43
46 42 40 39 40 39 38 39 38 36 34 35 36 37 37 36 36 35 34 35 35 35 35 34 33 32 30 30 31 31 33 34 35 36 43 45 48 46 46 45 36 39 47
46 41 39 39 38 37 38 38 37 36 36 36 36 37 38 38 37 36 36 37 39 39 38 37 37 36 36 35 34 37 39 40 41 41 43 46 44 42 39 39 38 40 45
43 41 38 36 34 34 35 35 34 35 36 36 36 37 38 37 36 35 36 39 42 43 42 41 41 40 40 39 40 42 43 44 41 42 40 38 36 33 27 28 33 36 46
40 41 39 37 35 34 31 30 30 31 32 32 34 35 36 35 33 32 32 36 40 41 41 42 42 42 41 40 41 41 44 41 38 34 31 34 33 31 26 28 33 39 42
37 40 37 34 32 31 31 31 33 33 33 34 34 35 35 34 33 32 32 34 37 37 37 38 37 37 32 30 31 32 33 29 27 29 32 32 31 29 33 36 38 38 41
33 33 31 31 30 31 33 33 32 32 33 33 33 33 33 31 28 27 28 31 30 32 32 30 30 27 23 22 23 25 24 25 27 28 29 30 31 35 35 35 33 36 43
27 27 27 27 27 29 29 30 29 30 30 30 30 30 28 26 25 25 25 27 27 30 31 30 27 24 21 22 21 20 21 23 25 29 32 35 30 30 32 37 37 33 34
25 26 25 25 27 28 28 28 29 29 30 29 28 27 25 25 25 23 23 25 26 28 28 27 25 24 21 22 22 22 23 26 31 25 27 28 31 33 30 25 29 28 30
20 22 24 25 25 25 25 25 28 28 27 27 27 24 24 24 21 16 17 20 21 22 21 24 23 23 25 27 27 26 25 23 21 22 26 30 30 28 28 27 27 27 30
10 14 16 17 21 18 21 27 26 25 24 24 24 24 22 20 19 18 20 20 19 20 23 25 23 23 25 24 23 22 19 19 22 26 26 24 24 25 25 24 24 23 27
3 2 5 13 11 32 38 27 26 25 26 24 23 24 22 19 18 19 20 19 18 20 24 23 22 21 20 20 18 18 19 22 24 21 20 20 19 18 20 20 19 19 21
4 4 6 11 25 17 18 15 14 17 19 22 24 24 22 21 21 20 19 18 20 20 19 20 21 22 18 17 19 21 21 20 19 18 17 15 13 15 17 17 12 16 21
7 1 4 3 2 4 6 9 13 16 18 18 18 19 21 18 18 20 20 21 21 21 21 20 19 19 18 19 20 20 18 16 15 14 13 13 13 14 15 14 12 17 22
9 8 8 9 6 4 6 9 12 14 14 13 13 14 16 17 18 19 19 19 18 18 17 16 18 18 18 18 17 15 14 12 11 11 11 13 12 14 14 16 18 17 19
7 8 7 6 5 3 6 10 13 13 13 15 16 16 17 21 20 19 20 19 19 18 19 19 20 19 17 15 13 11 10 9 9 10 11 12 13 14 14 16 16 17 15
10 9 9 10 9 5 5 7 9 12 14 17 19 20 19 18 17 18 18 19 19 19 19 19 18 16 13 12 10 9 9 9 10 11 11 12 12 13 14 13 13 14 13
17 14 13 15 13 9 5 5 8 11 13 16 16 17 17 17 17 17 17 16 16 14 14 14 13 12 11 11 10 9 8 9 9 9 10 10 10 12 13 11 9 10 9
21 16 14 17 18 17 13 9 9 11 15 17 16 16 16 16 16 16 16 16 16 16 15 14 12 11 9 8 7 6 7 7 8 8 8 9 9 10 11 8 7 6 4
17 15 16 19 20 21 20 19 18 18 20 19 17 16 15 15 15 15 14 14 13 12 12 11 10 8 6 6 5 6 7 8 9 9 10 11 11 11 10 9 9 8 7
16 15 14 15 18 20 20 21 22 24 24 22 18 15 16 17 16 15 15 15 14 13 12 11 9 7 5 5 5 6 8 9 10 11 12 13 14 13 13 14 13 11 10

GFSGL_850_spd_054.txt.gz
Wind_Speed
47 45 42 39 41 41 37 36 32 28 26 22 20 19 19 18 19 21 18 15 14 13 13 14 13 13 10 10 10 11 11 12 15 14 13 15 22 20 19 21 25 26 25
44 49 50 47 44 37 41 39 35 31 28 27 24 22 22 21 19 23 23 18 17 16 15 16 16 14 16 15 13 15 15 16 17 23 19 20 21 23 28 27 27 25 26
39 40 43 44 43 41 42 40 37 33 31 28 29 27 25 22 21 23 24 23 20 19 18 18 18 17 19 16 16 16 16 17 18 20 22 20 22 22 24 27 27 27 27
38 38 41 47 46 43 44 42 39 36 33 31 31 30 28 26 24 23 24 25 23 21 21 20 20 20 20 20 19 20 20 20 20 23 23 23 23 22 23 25 26 23 26
44 40 43 48 47 46 45 43 40 38 35 34 33 32 32 28 26 27 26 24 25 25 23 23 23 24 25 24 20 20 21 21 21 22 24 23 23 23 23 27 32 31 31
47 50 45 47 48 47 45 43 41 39 37 35 36 35 35 30 28 31 29 25 26 27 27 27 28 28 29 29 28 27 27 27 27 26 27 28 30 30 28 31 35 38 43
49 48 48 49 49 48 46 43 42 40 38 38 38 37 37 36 33 33 32 32 27 27 29 29 27 25 27 29 30 30 30 31 33 34 39 38 38 35 36 39 37 38 39
45 48 47 46 46 45 44 44 43 41 40 39 38 39 38 38 36 35 33 33 35 35 32 30 31 32 30 27 26 26 28 29 32 35 39 41 39 35 31 32 36 39 37
45 48 49 46 46 45 46 45 43 41 40 40 39 39 40 39 38 36 34 35 38 40 40 40 38 38 37 36 37 39 40 40 32 35 39 39 36 34 29 28 33 30 37
47 48 45 42 44 45 43 43 41 40 40 37 37 39 39 39 38 37 35 36 35 37 39 42 42 42 41 40 41 41 44 39 33 31 29 29 30 29 30 27 29 33 38
35 34 37 41 41 39 37 36 37 37 35 37 35 36 37 38 37 36 36 37 35 31 31 30 29 33 38 38 38 39 39 34 30 28 26 25 22 23 22 24 32 36 36
32 33 36 38 35 31 35 33 31 32 34 34 35 34 32 36 36 36 36 36 36 36 33 26 25 28 32 29 26 27 27 24 27 28 26 24 28 29 31 32 28 27 32
30 31 30 30 32 30 33 33 30 30 28 29 27 26 26 25 31 34 34 35 35 38 36 28 28 29 30 27 26 27 25 26 26 28 29 29 29 30 28 27 22 23 24
24 24 23 24 24 25 22 23 25 26 27 27 26 26 25 25 25 23 30 32 32 34 34 34 33 33 28 26 26 26 25 24 26 27 29 29 24 22 18 17 18 18 20
19 19 19 19 21 20 21 19 21 20 23 23 24 23 23 24 23 23 22 23 29 32 31 31 29 29 29 24 25 26 27 27 28 26 25 22 16 16 16 15 15 16 17
15 17 17 18 17 18 20 20 22 23 23 26 23 23 20 22 24 26 26 25 23 22 23 23 27 26 26 26 26 27 26 24 22 20 16 15 15 14 13 13 15 17 15
14 13 16 19 17 19 18 15 12 7 17 25 31 30 27 20 27 25 21 22 24 24 24 24 23 21 23 23 23 22 20 19 19 17 12 13 13 12 16 15 16 11 12
11 14 15 18 14 16 9 7 6 9 25 25 34 31 34 31 26 22 23 23 25 27 27 25 22 23 25 24 20 19 15 11 11 12 12 13 12 13 17 16 10 12 13
12 4 6 10 15 13 8 4 9 31 29 21 27 27 29 25 23 22 21 22 25 26 25 24 22 20 19 19 19 16 14 14 15 12 11 13 13 14 16 14 9 15 16
10 9 7 4 10 21 25 36 37 29 21 22 18 21 21 26 23 21 21 23 23 23 23 22 22 20 22 20 19 16 14 13 12 13 14 13 13 13 12 11 13 15 12
7 5 8 4 4 9 15 19 24 26 25 21 16 17 15 14 18 22 23 22 19 21 22 21 21 21 21 20 18 16 13 11 12 12 11 12 12 11 9 13 13 15 13
8 7 3 2 2 2 8 13 20 21 25 25 19 19 20 21 21 21 21 22 22 21 20 18 17 18 18 17 17 16 14 10 9 9 9 11 13 12 12 13 12 12 10
7 6 2 2 4 7 6 9 14 15 14 17 16 15 17 19 19 18 18 18 18 18 17 16 16 16 16 16 15 14 11 9 11 12 12 10 11 12 13 12 11 13 13
8 8 4 4 9 5 7 7 7 10 13 15 17 17 16 16 16 16 16 16 15 14 13 12 12 12 12 12 13 14 13 12 11 11 12 11 10 12 14 12 12 14 13
7 6 7 6 6 8 7 6 7 11 13 15 16 16 16 15 15 14 13 13 12 12 12 12 12 12 13 13 12 11 11 10 11 12 12 11 11 13 13 16 16 15 14
10 12 9 7 5 6 9 11 12 13 14 15 16 15 14 12 13 12 13 14 15 14 13 13 12 11 10 11 10 11 11 11 11 11 11 7 9 10 11 14 14 17 18

GFSGL_850_spd_057.txt.gz
Wind_Speed
43 44 43 41 39 41 36 36 31 27 22 25 20 18 18 18 18 19 17 13 14 14 14 12 12 13 10 9 10 10 10 10 12 12 11 12 16 23 25 25 25 23 22
43 45 46 43 39 38 44 38 33 33 29 27 24 22 19 19 19 20 19 17 17 15 15 15 15 13 16 15 14 14 13 14 14 19 17 19 20 20 23 27 30 22 21
40 43 43 43 44 42 40 43 39 36 33 28 27 26 23 21 23 22 21 20 20 20 19 18 18 17 19 16 17 15 15 17 15 17 19 19 21 21 22 23 25 27 27
37 40 44 46 46 43 42 41 42 40 37 34 31 29 27 24 24 24 23 23 22 22 21 20 20 21 22 21 20 21 20 20 19 21 22 22 22 22 22 24 24 23 27
42 42 47 49 47 44 44 43 44 41 40 37 34 32 30 26 24 26 26 25 24 24 23 22 22 23 23 24 20 20 20 19 19 21 23 23 23 23 21 25 31 30 30
43 48 44 43 45 47 46 47 44 43 42 40 38 36 34 29 27 28 27 26 27 26 26 25 24 24 25 26 29 28 27 27 28 26 26 27 29 29 28 28 32 39 39
44 42 43 43 46 48 47 46 47 45 43 43 40 39 38 37 32 31 30 31 26 28 28 26 24 21 23 25 25 25 27 29 32 33 36 37 39 37 37 37 30 33 38
44 42 44 43 45 46 46 48 47 45 44 44 43 42 41 40 37 35 34 33 32 32 28 27 28 27 27 23 24 24 27 28 27 28 32 34 35 34 31 32 36 38 37
43 47 46 48 44 45 48 49 48 46 46 45 44 43 43 42 38 36 35 35 34 35 34 34 34 34 33 31 32 34 35 35 31 32 34 35 34 32 31 32 34 32 32
47 50 48 46 45 46 47 47 49 48 47 43 44 44 43 42 40 39 36 35 31 33 34 36 37 38 38 37 37 37 39 39 37 35 33 32 28 26 28 26 25 29 30
41 40 42 45 45 43 41 41 43 47 37 44 38 41 43 41 41 39 38 38 33 29 29 29 29 30 30 30 33 35 39 38 37 34 28 25 24 22 22 20 24 27 33
36 39 40 41 40 37 39 39 38 37 39 35 37 33 32 39 38 39 38 38 37 36 33 26 25 27 29 30 31 31 30 29 29 27 25 23 20 21 21 26 28 31 26
36 38 37 37 38 35 37 37 33 34 31 33 29 30 29 27 28 33 36 37 36 37 37 27 30 30 29 30 32 31 28 27 28 25 23 21 23 25 26 29 25 17 20
33 34 35 36 37 37 32 30 29 29 29 27 29 27 26 26 27 25 28 32 33 35 36 37 37 36 35 28 26 28 28 28 27 24 24 25 27 28 24 14 12 15 16
30 32 34 33 35 37 30 28 29 26 27 27 26 24 24 25 26 27 25 26 28 35 35 34 34 34 32 26 25 26 26 24 22 21 26 28 26 18 12 13 14 13 14
28 31 31 31 32 31 31 33 31 31 30 28 26 26 19 24 24 26 29 30 24 19 20 24 22 22 22 20 20 21 25 26 25 27 27 22 15 14 14 13 13 12 13
23 27 28 30 30 32 32 28 29 32 26 29 27 26 27 24 28 26 28 29 30 27 23 18 20 22 22 21 24 22 22 23 23 20 19 16 12 14 16 12 12 12 10
14 23 24 24 31 28 28 26 24 24 20 15 8 4 19 29 31 25 28 26 25 31 24 20 23 20 18 19 20 20 20 22 18 15 12 12 13 13 13 13 12 10 11
11 12 17 19 19 24 25 19 19 24 18 16 15 13 17 20 27 33 30 25 19 22 24 27 27 25 23 21 21 20 15 12 12 14 11 11 12 12 12 12 11 11 14
16 11 12 12 14 19 16 21 11 17 15 13 21 27 37 34 26 28 31 29 26 26 29 26 26 23 20 19 18 18 19 21 20 14 11 13 14 14 11 10 11 12 13
13 10 8 3 4 14 14 15 16 20 26 29 17 23 50 30 24 24 24 27 27 25 22 19 22 21 21 19 19 16 12 11 15 18 18 14 15 13 9 10 9 12 15
10 10 5 5 2 3 2 13 19 26 20 21 21 25 21 19 16 20 26 27 26 23 22 20 18 19 19 18 18 17 15 8 7 7 7 8 10 12 13 13 11 11 12
9 8 6 6 4 3 3 5 8 11 10 10 18 21 19 20 13 17 18 20 20 20 20 18 17 15 12 12 13 12 6 9 14 14 10 8 9 11 14 13 10 11 13
6 5 7 10 2 2 4 4 3 4 10 11 12 11 11 11 9 12 14 14 14 14 15 15 15 13 10 9 11 12 21 18 15 14 13 10 8 9 10 13 14 13 17
9 11 18 14 7 6 6 9 6 5 6 10 17 19 18 16 14 12 9 9 9 8 8 8 9 9 13 17 16 15 12 10 11 11 11 10 8 9 11 14 16 19 18
9 9 8 7 7 8 8 9 10 11 10 10 9 8 10 6 5 8 8 8 7 7 8 8 6 5 10 11 11 11 11 11 11 10 8 4 5 6 9 11 10 13 18

GFSGL_850_spd_060.txt.gz
Wind_Speed
44 43 46 45 44 41 37 35 30 28 26 28 18 19 19 17 19 18 15 16 16 12 15 11 14 10 15 10 10 9 11 12 15 16 14 15 18 20 24 23 23 26 25
46 43 44 45 44 44 44 40 37 34 30 29 30 21 21 21 20 22 20 21 15 18 13 20 15 14 13 17 16 15 11 13 16 21 21 21 19 19 22 22 22 25 26
43 43 43 44 44 43 45 46 41 40 37 35 32 30 30 25 21 22 21 19 22 20 17 15 17 18 19 18 14 15 17 14 17 19 21 18 21 20 22 23 25 26 23
42 44 45 46 47 46 44 42 44 41 42 40 37 33 30 28 24 23 23 23 21 26 24 23 23 22 21 21 20 20 22 21 21 23 25 22 20 21 22 19 19 24 28
44 45 46 47 46 43 44 44 41 48 44 41 38 36 34 31 29 27 25 26 24 23 25 26 26 25 25 24 24 22 19 18 20 21 23 21 20 24 27 29 31 31 39
44 46 42 43 43 44 44 43 43 43 45 44 41 38 37 36 32 26 25 26 27 27 25 26 27 24 24 22 24 27 26 25 26 27 29 32 33 31 31 34 35 37 41
45 43 43 43 45 46 45 44 43 44 44 44 42 40 40 39 36 29 28 27 27 27 27 27 26 25 24 24 22 21 22 22 25 28 32 32 33 28 27 34 32 33 38
43 42 43 45 46 47 47 46 45 43 45 44 44 42 41 41 39 35 32 31 31 30 29 28 28 26 24 25 24 24 24 24 23 23 25 26 27 31 30 31 32 34 36
41 45 44 46 46 47 48 48 47 45 44 45 44 42 43 43 41 37 34 36 36 36 34 33 33 31 30 26 28 32 31 30 30 31 32 34 32 30 32 33 32 32 34
38 45 45 43 47 48 49 47 46 46 48 46 45 43 43 43 41 40 37 35 40 40 38 37 36 35 35 34 34 34 35 33 32 33 33 32 30 31 28 26 27 29 28
40 37 39 43 45 45 44 44 44 45 44 44 42 42 43 43 42 40 38 38 39 38 37 37 35 32 29 27 27 29 31 25 26 27 29 31 29 24 25 17 22 23 28
32 40 41 42 43 44 43 43 43 42 43 39 41 39 40 43 42 40 38 37 38 40 39 35 31 26 23 22 22 25 24 22 23 27 30 30 24 20 15 19 23 26 27
27 37 40 40 43 41 43 43 43 42 42 42 38 39 36 35 39 37 36 37 36 38 38 37 36 29 24 23 24 25 24 26 28 30 31 28 22 17 23 23 24 20 16
39 36 40 41 42 43 40 43 44 43 44 39 39 34 33 33 30 32 28 25 29 33 34 35 36 35 33 35 37 35 34 32 30 28 27 23 19 23 23 23 18 11 17
34 37 38 39 41 42 43 39 43 42 42 43 37 35 30 28 29 31 29 28 24 22 26 32 34 36 39 38 37 35 34 32 28 27 23 21 23 22 23 13 11 15 19
23 30 33 34 36 40 42 38 39 37 37 36 33 27 31 31 29 28 29 32 27 22 19 24 32 33 33 34 33 29 25 27 23 21 23 26 26 23 13 11 17 21 21
18 24 28 33 33 37 38 38 40 39 35 36 32 34 29 29 32 29 25 29 26 22 24 21 17 18 18 18 17 18 20 22 21 24 25 24 18 14 10 18 19 18 16
20 26 27 30 33 36 37 34 37 43 42 40 36 34 32 30 26 25 26 22 23 22 23 22 18 16 20 24 27 27 25 20 20 19 18 18 14 12 16 14 16 17 12
8 18 18 26 32 33 36 38 31 32 28 27 29 31 28 25 25 21 24 23 20 21 20 22 23 24 24 25 23 20 19 19 17 14 13 13 15 15 16 15 18 17 13
15 13 14 9 19 28 27 35 31 29 27 25 23 20 16 13 16 18 15 16 22 24 23 20 25 27 28 31 26 23 19 17 17 16 18 21 20 23 23 18 13 12 16
17 25 11 10 5 17 8 15 12 9 14 19 15 11 6 15 18 16 18 13 16 19 24 25 25 29 27 20 17 15 15 17 17 22 24 24 22 23 21 16 14 11 12
17 23 18 8 9 9 8 13 12 8 10 11 12 21 26 29 28 23 17 11 9 15 18 21 20 18 18 18 17 16 16 17 17 15 15 14 9 10 11 11 16 13 9
10 16 11 19 14 6 9 10 9 9 9 8 4 7 13 19 21 15 12 13 15 17 19 16 13 13 11 11 13 16 17 17 19 18 15 14 14 11 15 16 10 8 7
6 1 5 13 11 13 15 9 6 6 9 13 16 17 16 15 12 11 11 9 11 14 14 16 18 17 15 17 17 16 18 18 18 21 21 20 15 12 12 12 15 13 13
3 3 3 3 5 6 3 4 7 9 9 13 18 19 17 13 10 8 7 9 7 10 9 12 12 12 11 11 9 10 11 10 12 13 13 12 10 7 9 12 15 16 12
1 3 4 5 8 7 5 4 4 4 4 7 9 8 8 7 6 7 9 11 12 12 11 11 8 8 9 7 9 10 10 9 8 7 5 5 2 8 15 18 15 12 9

GFSGL_850_spd_063.txt.gz
Wind_Speed
43 43 46 48 44 39 40 36 31 32 29 22 18 23 18 14 14 14 13 13 10 9 10 11 14 13 18 15 12 12 10 12 15 12 12 12 15 18 21 20 16 21 24
47 44 44 47 48 45 42 41 38 34 31 28 24 21 21 18 16 19 17 16 18 15 15 14 16 13 14 19 17 14 14 14 15 19 18 18 16 13 14 14 19 23 19
50 47 46 45 48 50 47 44 43 38 36 32 24 27 25 24 20 19 19 18 22 21 17 17 19 20 18 16 20 22 21 19 19 22 22 19 20 18 14 20 16 17 24
51 50 48 47 46 47 48 47 45 43 40 39 37 34 33 33 29 23 21 20 19 25 22 20 19 19 21 20 19 19 18 20 21 23 25 25 20 16 16 20 27 26 28
48 50 50 46 44 43 44 46 46 47 44 41 41 41 38 34 31 28 26 24 22 22 25 26 24 23 23 22 22 22 21 21 20 20 22 22 22 21 25 30 31 30 31
49 50 47 45 43 43 43 43 42 44 48 45 44 43 42 40 35 31 28 28 26 24 23 23 25 25 23 22 21 21 22 25 25 25 27 29 31 31 27 24 27 31 36
53 52 50 46 44 42 43 42 42 41 42 48 45 44 44 43 40 34 30 29 28 27 26 24 23 24 24 25 24 24 22 21 22 23 25 25 24 20 22 28 30 32 33
44 51 51 48 45 43 41 44 42 41 41 43 47 46 45 44 41 37 33 30 29 27 26 25 24 23 23 22 22 22 23 23 23 23 24 22 22 24 28 29 31 34 32
30 51 52 50 47 46 44 42 42 41 42 41 42 44 44 42 40 38 35 34 34 33 31 30 29 28 25 24 24 26 29 30 28 27 27 28 31 31 30 29 27 28 30
37 47 51 49 49 48 46 44 42 42 42 41 42 42 42 42 40 38 37 37 37 38 37 36 35 34 31 30 31 30 32 30 28 28 29 30 27 25 24 25 21 23 25
26 44 49 49 50 49 47 46 45 44 42 44 43 43 43 40 38 37 36 38 39 39 40 39 37 36 34 33 33 35 35 23 19 20 22 23 23 24 22 17 17 19 22
23 27 44 45 47 49 48 48 47 45 45 44 45 45 44 42 39 36 36 37 38 40 41 37 37 33 30 28 24 20 18 17 21 22 24 25 24 24 18 14 15 17 22
22 26 27 46 45 45 47 49 48 46 46 45 45 45 45 43 41 38 35 35 35 38 38 37 37 35 31 25 22 21 21 25 27 27 27 27 26 22 16 15 15 20 20
26 27 30 36 47 44 47 47 48 48 48 46 45 44 43 42 40 40 38 36 34 33 34 36 37 37 37 35 33 32 32 29 27 28 26 24 22 18 16 16 20 17 14
26 29 31 34 43 48 48 47 48 50 49 48 46 43 41 41 42 39 38 36 32 31 28 32 38 39 39 39 40 37 33 30 28 27 26 21 16 19 16 15 17 12 16
19 25 31 33 40 49 48 48 45 46 46 45 41 42 42 41 37 34 33 34 30 25 28 32 31 33 35 36 36 35 36 34 30 25 17 16 17 17 18 18 14 14 17
16 17 23 29 38 44 46 48 48 40 41 42 40 36 37 34 33 35 28 27 28 31 35 34 32 29 25 23 27 26 24 23 19 18 15 15 18 18 18 13 11 16 21
14 22 28 26 30 35 43 43 43 46 42 43 37 37 31 35 35 33 35 32 36 42 40 38 35 29 24 19 17 18 18 18 19 18 18 19 20 16 12 11 17 20 19
10 17 27 32 31 34 33 38 40 40 42 41 36 38 39 33 32 28 24 26 26 30 38 36 33 29 24 19 20 22 23 23 21 19 19 19 16 13 14 18 21 21 20
5 9 25 28 37 37 38 35 37 38 37 40 40 36 40 33 31 33 32 30 28 25 24 27 32 30 24 25 27 25 23 22 22 17 17 17 17 17 22 22 22 22 22
7 7 10 20 28 29 37 34 33 33 32 32 36 34 28 22 18 19 19 15 17 17 18 25 25 14 21 22 25 22 20 19 18 17 16 17 17 19 21 22 24 24 22
10 14 11 9 15 22 18 22 21 26 25 28 25 24 21 20 17 15 14 15 17 16 17 17 19 16 21 26 19 12 13 17 17 15 15 18 18 18 17 12 9 10 15
0 5 19 16 12 9 14 15 17 17 15 16 16 16 17 12 15 14 14 14 16 17 16 19 23 24 21 15 13 15 17 19 17 16 17 18 16 12 9 8 9 9 8
1 4 17 23 23 23 23 23 27 21 14 17 12 8 6 10 14 15 14 15 15 14 15 17 18 18 17 17 16 17 17 17 15 13 14 15 14 14 14 14 9 10 11
5 2 7 17 21 20 17 21 19 18 20 21 17 14 13 12 15 12 10 15 18 17 14 13 12 12 11 9 10 10 11 12 13 15 16 16 15 15 18 19 17 16 14
14 13 11 10 11 13 14 16 20 22 20 19 21 22 22 23 19 15 13 13 13 11 10 9 7 5 4 4 5 6 6 7 10 12 12 13 15 14 15 16 16 16 15

GFSGL_850_spd_066.txt.gz
Wind_Speed
43 40 39 42 42 43 40 36 29 28 24 23 20 19 23 20 15 15 15 15 16 16 15 16 19 21 18 17 13 12 10 12 16 15 14 13 14 16 15 13 15 18 21
43 43 41 41 44 44 45 43 36 32 30 29 27 22 23 24 19 16 16 17 17 17 15 14 16 20 21 22 20 16 15 15 17 19 16 16 18 17 18 14 15 17 17
46 46 44 42 44 47 46 46 43 38 34 33 33 30 24 25 23 18 16 17 18 19 17 17 15 17 19 18 20 23 20 18 19 22 23 24 24 22 19 17 17 19 27
48 48 48 44 43 44 47 47 46 45 42 38 35 35 31 29 27 23 19 17 19 21 22 21 19 19 19 20 19 18 19 22 22 23 26 26 25 21 20 21 26 28 25
47 50 50 47 43 42 42 47 49 49 47 45 43 39 35 33 31 30 27 24 21 21 23 25 24 22 22 21 21 21 20 21 21 22 24 23 23 23 24 26 28 25 27
46 49 48 47 46 44 43 43 45 50 51 50 49 45 42 40 36 33 30 28 25 24 24 24 25 25 25 24 23 23 22 22 22 22 23 24 24 23 20 20 23 27 32
45 46 46 44 44 43 43 43 44 45 47 52 53 51 48 46 45 41 37 33 30 29 27 26 26 26 25 25 25 24 24 23 23 22 23 24 24 20 21 24 27 30 30
38 43 43 44 45 42 41 42 42 43 43 47 49 53 52 50 47 45 42 39 36 33 31 28 26 24 24 23 23 24 25 25 24 23 25 25 25 22 24 27 31 31 28
30 37 37 39 44 45 45 43 41 41 41 42 45 46 49 50 48 46 44 43 41 39 35 32 30 27 24 22 24 25 25 25 23 25 26 26 26 26 28 30 27 25 26
34 28 24 27 44 49 50 47 43 42 41 38 41 44 45 45 45 43 41 42 42 41 39 37 35 33 30 27 28 29 30 28 25 26 27 27 26 26 23 22 21 24 22
30 29 32 35 40 49 52 52 49 45 44 42 40 39 41 43 43 42 41 41 41 41 42 42 38 35 33 32 32 33 34 28 29 29 26 24 23 22 19 17 18 20 17
22 29 30 34 35 44 47 50 53 50 49 46 44 42 41 41 39 38 38 38 39 41 43 42 40 36 34 34 35 34 32 30 31 29 26 25 23 20 17 16 18 15 12
21 27 24 27 30 44 44 47 53 52 52 51 48 46 44 43 41 39 38 37 37 40 41 40 37 35 35 35 34 32 29 29 28 29 30 29 24 18 19 19 15 12 13
20 23 30 29 33 35 44 46 50 53 55 53 52 50 46 45 44 41 40 38 37 38 38 38 37 37 36 35 33 31 30 31 32 30 29 27 24 23 21 15 13 11 16
26 26 31 34 35 39 37 45 49 52 53 51 52 51 47 46 46 41 39 39 38 37 36 38 41 41 41 40 38 37 36 36 37 36 35 31 24 22 19 15 13 14 15
27 25 26 28 34 34 36 43 46 50 53 50 47 47 44 41 38 38 36 36 34 30 32 37 39 41 41 40 41 42 43 43 42 39 34 26 23 20 17 15 16 16 16
28 30 25 23 23 30 33 41 45 48 49 47 47 44 43 42 37 34 34 32 30 29 34 37 36 36 37 35 34 36 38 38 38 38 36 30 22 18 16 18 19 19 17
23 27 27 27 24 22 29 37 46 46 48 48 45 43 38 39 38 33 30 31 35 33 35 36 34 32 34 34 34 34 33 33 33 33 31 27 23 20 20 20 19 18 16
23 25 23 27 29 29 30 36 42 46 46 48 45 43 40 38 38 34 34 35 35 34 33 34 34 35 37 35 32 30 28 28 26 27 26 26 25 23 23 20 18 17 18
19 17 20 27 32 34 33 36 35 38 40 43 43 43 42 38 42 42 36 34 32 29 31 33 32 35 37 33 30 26 24 13 30 33 28 26 22 20 21 17 20 21 21
18 17 16 23 24 27 31 37 36 42 42 41 40 40 39 41 40 37 34 31 27 23 19 23 25 27 28 26 30 37 37 34 59 49 18 22 22 19 17 19 20 20 20
20 21 17 14 23 25 30 31 34 39 45 41 38 36 35 41 38 31 26 19 18 15 15 16 19 23 26 30 33 34 37 44 36 20 19 19 17 17 18 20 21 18 13
15 18 12 12 12 9 11 22 19 33 40 31 29 32 30 27 24 16 13 11 10 11 12 14 19 20 20 18 17 19 25 25 23 27 26 20 17 17 18 17 14 11 7
10 8 7 7 9 16 12 14 20 19 24 28 27 24 15 14 15 12 13 13 8 7 9 13 18 15 13 13 15 20 24 26 23 21 20 20 18 17 19 17 14 14 14
6 3 5 12 14 17 15 21 25 26 27 30 29 26 23 15 12 15 15 14 9 17 20 17 19 19 18 17 17 17 17 15 15 16 15 15 17 18 18 18 16 16 16
3 5 6 7 8 12 16 17 16 18 26 26 20 18 18 21 20 21 18 18 16 18 18 17 13 11 11 11 9 6 7 9 9 9 10 12 14 16 17 16 16 17 18

GFSGL_850_spd_069.txt.gz
Wind_Speed
45 39 33 30 34 36 36 34 30 22 23 21 20 19 19 18 17 16 15 15 16 16 17 20 20 20 19 18 16 14 13 12 15 15 15 15 15 16 16 15 19 16 19
47 43 38 32 29 34 38 38 36 31 25 25 23 23 21 18 22 21 18 17 17 17 17 18 18 20 22 23 21 20 18 16 17 20 18 16 16 17 20 22 17 18 19
47 47 43 39 36 32 36 39 40 37 33 29 28 28 25 22 21 24 21 18 19 18 19 19 18 17 20 20 22 23 23 21 21 23 23 23 24 22 23 18 18 20 22
49 48 46 43 39 35 31 37 41 42 41 37 33 31 29 27 26 23 22 21 18 19 20 21 22 21 20 20 22 21 18 20 22 24 27 27 26 24 21 23 24 20 20
45 49 48 45 41 36 35 32 37 42 43 43 40 38 34 31 30 30 28 26 24 21 20 21 22 23 22 22 21 21 21 21 22 24 26 27 27 24 22 21 21 22 24
36 43 43 44 46 42 38 37 35 36 41 45 46 45 43 40 36 32 32 32 30 28 26 24 24 24 24 25 25 24 24 24 25 26 27 26 25 23 19 20 22 26 31
29 32 37 40 43 40 37 39 39 39 38 40 46 48 48 47 45 40 38 36 35 33 31 29 28 27 26 26 26 27 28 27 27 26 27 27 26 21 21 23 25 28 30
21 33 36 37 41 39 37 38 36 38 40 40 41 43 48 51 50 47 44 42 42 42 38 36 34 32 29 27 27 27 27 26 26 26 28 27 25 23 25 25 28 31 32
18 19 34 35 39 38 36 35 34 35 35 38 38 40 43 47 49 50 48 47 47 47 44 42 40 37 34 29 27 27 26 26 24 24 24 25 27 27 27 30 30 30 31
12 14 21 27 31 32 30 30 33 36 37 36 36 35 37 42 44 46 45 48 50 49 48 47 43 40 37 33 31 29 30 29 25 25 26 26 26 27 27 27 27 28 25
10 9 16 21 19 20 20 25 32 36 41 39 40 38 34 33 37 41 43 43 45 47 47 46 45 41 39 36 34 34 34 30 30 31 31 29 29 29 27 25 23 22 23
15 10 11 16 23 19 22 26 32 38 41 44 42 42 40 36 34 34 36 41 42 44 47 46 44 41 38 36 35 34 33 33 34 35 36 34 32 28 23 21 22 23 24
21 17 10 16 20 20 22 29 32 37 40 44 44 45 45 39 38 36 35 36 36 40 40 41 41 40 37 35 35 34 31 32 33 34 36 34 30 25 24 24 24 27 25
25 28 22 16 16 20 20 25 29 36 40 41 44 46 45 43 40 40 38 36 36 38 38 37 36 37 38 37 36 34 33 32 32 33 34 33 30 29 26 25 28 25 23
32 32 32 30 27 19 22 24 31 33 34 38 43 44 42 42 40 38 36 37 36 35 34 35 38 40 40 40 39 38 37 34 34 35 35 34 32 30 30 28 27 24 25
37 35 29 29 31 26 23 26 30 31 34 36 36 41 45 41 37 35 33 34 31 29 29 34 38 40 41 40 40 39 38 37 38 37 37 37 37 35 31 27 28 26 25
31 30 29 26 28 30 26 23 25 29 33 37 39 37 42 41 40 36 34 31 29 28 33 34 34 35 36 36 37 37 34 31 30 33 37 39 39 37 34 31 29 28 28
28 29 30 29 29 33 31 26 23 23 33 36 36 39 40 40 40 37 33 32 35 34 37 37 37 35 34 35 34 30 29 31 31 29 29 29 30 29 31 32 31 29 30
28 28 30 29 29 33 36 32 28 29 29 36 38 35 34 40 41 40 38 37 39 37 37 36 36 36 33 33 31 31 32 31 30 25 18 17 17 15 21 28 30 30 27
26 26 27 29 30 35 37 36 32 33 33 34 40 41 36 34 40 45 44 42 41 42 40 35 34 36 34 34 32 32 32 32 32 30 30 27 22 15 19 25 18 38 34
22 23 24 24 26 33 35 31 29 27 32 36 39 38 35 33 34 37 44 43 43 43 40 35 35 31 30 29 25 25 26 25 26 28 28 28 29 34 46 42 67 81 36
17 20 20 21 27 28 30 29 31 33 32 31 35 39 38 38 36 36 37 39 39 36 33 32 30 24 24 23 24 25 27 28 30 34 35 34 38 39 36 31 23 38 21
11 14 15 18 21 25 24 25 29 34 34 34 30 32 37 36 35 31 31 32 33 31 24 22 21 24 25 25 24 25 28 32 31 28 23 24 21 19 19 21 17 17 18
7 8 8 10 15 18 20 19 18 21 21 23 22 29 36 34 30 29 32 30 26 22 21 23 23 24 23 21 19 18 18 16 16 15 17 23 21 23 20 17 15 17 19
6 5 5 4 4 4 7 9 13 17 17 22 28 29 31 32 31 31 22 19 18 16 17 18 18 20 17 13 12 12 16 15 14 17 15 16 17 16 15 15 16 15 14
9 7 5 3 7 2 5 7 6 11 28 26 30 28 25 27 26 25 25 25 23 22 24 22 19 15 19 14 13 14 15 14 13 13 13 14 13 13 12 12 12 11 12

GFSGL_850_spd_072.txt.gz
Wind_Speed
44 40 35 30 28 29 31 31 28 23 21 19 17 16 16 15 14 13 10 11 13 12 13 16 17 16 15 15 15 14 15 17 19 19 18 17 17 18 17 19 21 22 20
46 43 38 33 30 30 32 33 32 29 25 20 20 18 18 17 17 18 16 14 13 14 13 15 16 16 17 18 19 19 18 19 21 23 22 21 20 20 22 23 22 21 23
47 46 44 40 35 33 32 33 33 32 30 27 24 23 21 20 19 18 18 19 17 15 15 15 16 16 17 17 18 18 19 20 21 24 26 26 26 25 24 23 22 23 20
41 43 44 44 42 37 34 32 33 34 34 33 31 27 26 24 23 22 20 20 19 17 15 17 17 18 18 17 17 18 19 21 21 23 25 26 26 25 25 26 26 22 22
36 38 40 41 42 43 42 38 34 33 36 37 36 34 32 30 28 26 24 22 21 20 18 17 17 17 18 19 20 20 20 21 22 24 26 27 28 27 24 24 25 25 24
28 30 29 33 39 40 42 42 40 38 35 37 40 39 39 39 36 31 28 26 25 25 26 23 22 20 19 18 20 22 23 24 25 26 27 29 28 26 24 22 25 27 29
26 27 30 31 33 33 35 39 41 40 39 38 36 39 42 42 41 39 36 34 32 30 29 28 26 24 21 21 21 22 23 24 26 28 30 30 29 25 24 23 24 26 27
22 29 30 28 29 28 28 33 36 37 39 40 39 37 37 40 43 44 42 41 40 38 35 33 32 30 27 25 25 25 26 26 26 26 28 28 27 25 24 24 27 30 31
19 22 25 29 34 34 32 31 32 32 33 33 37 37 37 38 38 39 42 46 46 45 42 40 38 36 33 30 30 31 30 29 25 24 25 24 24 24 23 26 27 28 31
6 11 16 24 31 33 31 31 31 29 29 28 30 31 31 31 33 35 38 40 44 47 47 47 44 41 37 35 35 34 35 32 28 26 26 27 26 26 25 27 26 29 29
5 4 6 17 22 26 28 30 28 28 25 25 27 28 29 29 28 29 31 36 39 41 44 45 45 43 41 39 38 37 36 33 32 30 30 32 31 30 29 28 27 27 27
8 5 3 7 16 21 20 19 22 26 27 28 30 30 28 27 29 30 30 31 31 36 39 39 39 39 37 36 35 34 33 33 35 35 34 35 36 33 29 28 26 24 24
12 11 8 7 8 11 18 28 30 28 32 32 35 32 31 28 27 28 28 30 29 32 32 33 34 35 35 35 36 34 32 33 35 36 36 37 35 33 29 27 23 23 26
20 18 16 18 17 14 15 19 24 24 29 34 35 35 30 30 27 27 26 26 28 29 31 30 30 32 33 34 34 33 33 34 35 36 37 36 34 33 30 26 26 23 25
23 21 21 20 22 21 20 19 20 27 25 33 37 34 27 29 30 29 25 21 22 25 27 30 32 35 37 38 38 37 36 35 37 37 37 37 36 34 32 28 28 26 28
27 26 24 23 23 25 28 28 23 25 32 30 33 35 30 26 24 26 27 21 15 13 19 27 31 34 37 37 38 38 37 36 37 36 36 36 38 37 34 31 30 30 28
28 28 29 27 27 23 25 26 30 28 25 33 28 28 30 27 25 27 29 28 22 17 23 26 29 31 33 33 34 37 38 36 34 33 33 33 33 34 33 33 33 32 31
30 30 30 32 29 26 25 25 27 29 29 29 27 24 25 25 26 29 33 33 30 29 31 30 31 32 32 31 31 33 33 32 33 32 32 30 28 29 29 32 34 33 32
35 36 34 33 34 32 29 29 29 32 29 29 30 27 25 23 24 27 37 42 41 38 35 36 34 34 33 33 33 33 32 33 33 32 31 30 30 31 32 34 32 31 30
35 33 33 33 33 33 29 31 30 29 33 30 29 28 30 27 27 26 27 32 42 41 39 37 36 36 36 37 35 34 33 32 33 33 33 33 32 31 31 30 29 30 31
28 29 29 29 30 28 30 29 27 29 31 31 29 27 25 29 31 27 26 28 31 37 41 41 39 38 37 38 36 36 35 34 33 35 34 34 33 32 32 28 23 24 26
28 26 28 29 27 27 27 27 27 30 32 32 30 28 27 26 31 30 31 31 31 31 34 39 39 39 40 39 36 36 35 33 31 29 27 25 26 27 30 31 31 31 30
29 26 26 25 24 26 25 26 27 28 32 31 29 28 30 30 29 30 30 33 35 33 31 31 31 34 37 35 33 30 30 31 31 30 29 29 31 36 37 33 24 22 19
25 23 22 21 21 22 20 21 24 25 25 27 30 21 27 30 30 28 30 33 33 31 29 30 33 34 34 31 28 31 31 32 31 31 32 31 29 27 29 28 20 21 17
18 18 18 18 16 13 9 10 16 17 17 21 21 23 26 28 32 31 30 31 29 30 32 31 29 26 25 22 21 21 19 21 21 18 18 12 16 22 23 22 17 14 16
8 9 10 9 7 7 4 3 6 8 10 15 17 20 21 23 23 25 26 26 30 28 24 23 20 18 18 19 16 16 17 17 18 19 17 14 19 19 20 18 16 17 19

GFSGL_850_spd_075.txt.gz
Wind_Speed
39 39 36 31 28 27 26 24 25 23 22 19 17 15 14 12 11 11 9 9 8 9 10 11 14 14 14 14 13 13 13 14 13 13 18 18 18 18 18 19 21 23 23
35 40 41 37 31 29 26 25 25 27 25 22 20 18 17 15 16 15 14 14 12 9 10 12 12 14 15 16 16 17 17 18 18 19 18 20 21 20 20 21 20 22 24
30 35 40 41 39 34 31 26 26 28 30 27 25 22 20 18 18 17 15 14 15 14 11 13 12 14 14 14 14 16 16 17 18 20 20 19 23 22 22 22 23 22 20
23 26 32 36 40 39 36 32 29 28 31 32 30 28 24 22 22 20 19 17 15 16 15 13 14 15 16 15 15 16 16 17 16 19 18 18 18 20 21 19 20 19 23
21 24 27 28 31 35 39 38 35 32 30 32 34 33 32 30 28 27 24 21 20 17 18 16 14 13 13 15 17 18 18 18 15 16 18 18 18 16 18 18 18 19 20
24 25 23 25 29 32 33 34 36 37 36 34 34 36 37 37 36 32 29 27 25 24 23 22 20 18 18 17 16 16 17 19 21 20 20 21 25 21 17 17 18 18 18
23 25 26 26 29 29 29 32 34 33 33 36 37 37 37 39 39 40 36 34 32 30 27 25 24 24 22 21 19 18 19 19 21 22 26 26 26 23 22 23 19 18 20
13 19 24 27 28 27 28 30 30 30 31 31 35 36 37 38 37 39 40 39 40 38 36 34 32 30 27 24 23 24 24 24 24 23 26 27 25 23 21 21 23 24 25
6 14 21 22 26 28 30 29 30 30 29 29 31 34 36 37 37 36 35 38 43 44 43 40 39 37 34 30 29 30 30 30 28 27 26 27 24 22 21 22 22 19 21
8 6 11 18 24 22 25 29 31 32 30 28 29 31 32 34 35 36 36 37 40 41 42 44 44 42 40 37 36 35 36 35 31 30 29 28 27 27 25 25 25 24 22
12 10 8 8 17 19 23 26 27 27 28 28 30 30 30 31 32 33 32 34 37 38 40 41 42 42 39 41 40 40 40 35 34 34 32 32 29 30 29 29 27 28 25
16 14 10 8 6 9 19 18 21 25 27 28 26 29 30 31 32 32 33 33 32 34 34 34 37 38 36 35 36 38 37 34 34 32 29 29 28 27 27 28 27 28 29
21 17 18 15 10 7 9 15 22 26 25 23 24 30 31 30 31 31 32 33 32 33 33 30 28 29 29 31 34 34 30 31 34 35 34 34 32 28 30 31 29 29 28
27 24 19 19 21 18 15 16 16 19 21 27 31 28 28 28 28 28 29 31 31 31 32 31 30 30 31 30 30 31 32 34 36 37 37 35 34 33 34 33 30 27 27
30 28 26 23 19 22 21 21 21 20 17 19 26 27 32 31 30 26 23 26 28 28 28 30 33 34 36 36 34 32 30 34 38 38 37 35 33 32 34 33 32 29 29
32 25 26 27 26 24 25 27 22 23 24 20 23 29 33 37 34 31 28 25 24 20 22 28 33 32 34 36 36 37 37 38 36 35 36 35 35 34 32 30 31 32 32
32 34 31 30 29 29 28 28 28 24 27 26 24 26 31 34 33 32 29 22 22 23 24 28 31 34 35 36 35 34 37 37 36 35 32 32 33 34 33 33 29 29 31
30 35 36 34 31 31 30 30 30 30 30 31 29 28 27 30 30 27 28 29 29 30 31 31 31 30 29 30 30 31 31 33 34 35 32 32 33 33 34 33 33 31 30
29 35 37 37 37 35 37 36 33 32 32 31 33 31 30 26 23 27 27 31 37 38 38 36 33 32 32 31 32 31 30 32 31 31 34 31 30 30 32 31 31 32 33
31 35 36 37 37 36 35 36 36 34 33 31 33 37 29 28 27 26 28 31 36 41 40 41 38 37 38 37 36 36 35 34 33 33 35 36 37 34 34 34 35 35 34
31 31 32 33 33 33 33 34 34 34 35 32 36 35 31 26 29 28 28 30 32 36 35 39 39 40 40 39 38 38 36 37 36 36 37 37 36 37 36 36 36 35 31
30 30 31 32 32 32 32 32 33 34 35 37 36 34 33 31 30 33 27 29 34 32 33 35 33 38 41 41 40 39 40 40 39 37 36 37 37 36 37 36 33 32 34
23 26 30 32 31 32 32 31 32 33 34 35 35 33 33 32 29 32 33 33 35 33 36 35 33 34 36 38 39 40 42 40 40 41 37 35 35 33 33 32 32 32 30
24 25 26 27 29 30 31 31 30 31 31 32 31 32 31 29 31 32 31 32 34 36 36 34 32 33 35 35 36 35 38 38 38 37 34 33 31 29 29 28 30 33 30
17 18 20 22 25 28 29 29 27 25 23 25 27 29 26 26 26 30 27 30 34 33 32 30 31 32 30 31 35 36 34 35 31 29 30 30 29 29 28 25 24 24 25
12 12 13 15 18 21 22 23 22 20 19 20 21 23 23 23 23 22 23 24 25 26 25 24 25 25 25 23 20 24 26 24 24 23 22 20 21 21 19 22 27 28 31

GFSGL_850_spd_078.txt.gz
Wind_Speed
25 25 26 26 26 24 21 19 20 17 16 16 16 15 13 12 12 13 11 9 8 9 10 11 11 13 11 11 10 10 9 9 10 11 11 11 15 13 14 16 15 16 14
21 24 26 29 26 23 25 21 19 19 18 17 17 16 14 14 15 14 12 11 11 10 9 11 11 11 16 15 12 13 12 12 13 15 14 12 13 14 14 16 15 14 16
17 20 23 24 25 29 26 24 22 20 20 20 19 19 17 16 17 17 16 15 15 14 13 12 12 12 14 13 13 13 12 12 12 13 14 13 13 13 13 14 15 17 15
16 15 18 21 24 27 32 29 27 24 22 22 24 21 19 19 18 19 18 19 16 15 14 15 14 14 15 14 14 14 14 14 14 14 14 14 13 12 13 14 16 15 17
11 16 18 18 19 21 27 32 32 30 28 25 24 26 26 22 21 20 20 20 20 19 17 16 16 16 15 15 14 15 15 15 14 14 15 15 14 13 13 16 16 17 18
11 15 15 16 17 19 23 28 28 29 31 31 30 28 27 26 26 27 26 21 21 20 20 19 19 21 19 18 17 17 19 18 18 17 17 18 19 16 15 15 16 18 19
5 9 17 18 17 18 19 21 27 30 28 30 32 32 32 32 30 32 33 32 26 24 23 22 22 22 24 24 22 21 22 22 22 21 22 22 21 19 18 18 16 17 19
4 6 6 9 16 19 22 22 22 22 25 29 31 33 34 34 34 33 32 34 37 37 33 29 27 26 25 24 23 23 24 24 25 25 27 26 24 22 21 18 17 20 20
12 8 9 13 13 13 18 23 23 21 22 24 26 30 32 35 35 35 34 35 36 40 41 42 40 37 36 34 33 30 27 28 24 28 28 29 28 26 24 22 20 19 21
17 16 14 9 13 15 17 17 23 24 24 23 23 25 28 33 35 36 36 36 31 33 36 40 43 45 43 42 40 38 38 38 28 27 27 31 31 30 28 28 27 23 22
18 17 16 15 12 13 22 20 22 22 22 23 24 25 26 28 32 33 33 35 38 33 33 33 32 36 39 40 43 45 46 41 33 31 29 29 28 26 24 25 29 30 25
19 20 19 18 16 14 14 18 20 19 23 23 25 28 26 28 30 33 34 35 35 34 35 32 31 34 37 38 37 40 39 39 36 32 32 32 29 28 26 26 28 31 27
21 20 21 21 20 18 16 15 14 16 13 18 21 24 27 26 25 28 31 33 35 37 38 34 32 33 34 35 35 35 32 33 34 32 33 33 30 28 28 28 28 32 33
21 22 21 21 22 20 18 15 15 16 14 14 14 20 23 25 25 25 26 27 30 36 41 41 39 38 35 31 31 33 34 35 32 31 31 30 28 27 28 26 28 26 24
23 22 22 21 20 21 20 17 19 18 18 21 19 18 22 27 24 27 23 22 27 28 34 39 37 35 34 31 29 28 27 26 33 32 30 29 28 27 28 26 27 26 26
19 22 22 23 22 21 22 23 23 26 25 24 26 23 22 32 29 31 30 32 29 31 30 26 29 30 31 30 29 29 28 30 28 25 27 27 28 28 28 26 27 28 28
26 22 24 25 25 24 24 24 28 26 28 27 26 26 30 33 30 31 30 31 28 31 35 33 26 28 30 29 33 32 30 30 31 31 30 29 27 27 28 29 29 29 29
25 28 28 27 27 26 25 25 26 27 29 31 28 29 28 26 27 30 29 28 27 31 36 35 30 28 29 30 34 30 29 28 29 32 32 29 28 28 28 29 29 30 30
24 24 24 26 27 28 30 30 30 31 34 34 33 31 25 30 27 26 29 28 32 35 39 41 38 31 31 32 29 26 28 28 29 31 28 28 29 28 29 29 30 31 30
29 29 29 28 29 30 30 30 29 29 34 34 31 30 25 24 23 20 26 26 29 34 38 40 39 37 33 32 33 33 33 33 29 30 34 32 29 31 32 29 30 30 31
27 29 28 29 31 30 29 30 34 33 33 37 41 35 32 32 34 28 24 27 28 29 34 35 32 34 35 33 35 40 39 39 36 38 38 36 34 34 36 38 41 40 38
26 29 31 32 33 32 31 30 32 36 37 37 38 36 38 34 36 33 28 27 29 27 30 34 36 37 36 35 37 38 41 42 41 39 39 38 36 36 35 37 38 38 40
27 28 29 32 32 32 34 36 32 34 36 34 34 36 37 34 35 36 34 30 33 33 33 34 37 38 39 42 45 45 45 45 42 39 41 39 38 38 38 39 38 40 40
25 26 25 26 27 29 32 32 36 36 37 37 36 36 37 37 37 38 37 35 34 35 36 42 42 40 40 40 41 44 43 40 40 38 38 39 40 40 39 38 40 39 33
25 24 25 23 24 25 28 31 34 36 36 36 35 35 34 35 35 35 35 33 32 33 36 37 39 39 39 36 38 38 36 41 38 33 31 32 33 33 33 32 28 24 24
25 22 21 20 19 19 21 24 26 29 30 32 33 32 32 31 31 30 30 30 29 30 30 30 30 29 31 34 34 31 31 33 35 33 32 30 28 25 26 29 30 30 29

GFSGL_850_spd_081.txt.gz
Wind_Speed
19 20 20 19 19 18 17 16 16 15 14 12 9 12 12 10 11 12 12 7 6 9 13 8 11 15 10 10 10 11 10 10 13 13 12 11 14 21 16 17 15 14 16
19 19 20 20 19 18 18 17 16 16 15 17 15 17 15 14 13 14 12 11 11 10 10 11 11 11 15 17 12 12 12 13 12 17 17 17 15 16 20 21 16 13 14
19 19 18 18 21 22 21 19 18 17 17 16 16 18 16 15 15 15 17 15 14 13 12 12 12 13 15 15 15 15 14 14 13 14 16 15 15 14 16 16 17 15 15
16 18 18 17 20 19 21 22 19 20 19 18 20 20 19 18 17 17 18 19 18 16 15 15 15 15 16 16 15 17 17 18 15 17 17 16 15 14 15 15 15 15 15
7 5 11 12 15 18 19 23 23 22 22 22 20 21 23 21 19 19 20 19 19 17 17 17 16 18 19 19 16 15 16 16 15 15 16 16 14 14 12 15 18 18 18
8 9 8 8 12 15 16 18 24 27 26 26 25 25 24 23 23 25 24 21 21 22 23 21 20 20 23 21 19 17 22 20 22 19 17 18 21 20 17 16 18 19 21
3 5 13 17 13 13 15 19 18 23 23 27 29 27 29 30 26 28 31 31 28 26 25 23 22 21 24 24 23 24 25 25 26 25 26 25 23 22 22 23 19 21 22
8 5 6 9 13 20 14 17 21 23 22 24 29 31 33 32 32 31 32 33 33 35 34 30 29 29 28 22 25 25 27 27 28 29 31 30 28 26 25 22 22 24 22
15 13 9 9 11 15 15 13 16 22 24 26 27 29 31 34 34 33 33 35 35 38 38 39 39 37 36 35 32 30 30 32 25 28 29 29 28 26 25 27 27 23 26
12 12 13 12 10 10 15 18 17 15 21 25 27 29 30 31 33 34 36 36 31 33 35 38 40 41 42 42 41 41 42 43 33 30 30 30 29 31 31 30 31 31 27
12 12 12 12 15 15 13 17 21 20 20 20 25 25 29 32 31 32 34 34 32 32 34 33 33 34 33 36 40 44 48 43 35 32 34 35 33 32 32 31 28 27 28
15 13 14 14 14 13 17 15 17 18 21 23 22 24 28 32 31 32 35 35 35 35 35 33 33 33 35 35 36 37 36 34 38 36 35 35 33 32 31 29 32 33 33
18 17 16 17 16 15 18 17 15 16 19 17 16 18 22 24 27 31 28 30 31 32 39 39 34 33 36 36 35 36 34 33 36 37 39 40 37 36 34 33 32 31 30
19 20 19 18 18 18 15 16 15 15 15 13 17 18 23 16 16 19 23 22 29 32 33 33 38 41 40 37 33 34 37 39 37 36 36 36 34 32 33 31 31 32 30
19 18 19 19 20 19 19 17 17 18 17 19 19 20 22 24 24 22 20 19 25 21 22 27 26 28 37 44 39 35 31 29 31 32 33 32 31 31 32 31 31 31 31
18 19 17 19 19 21 23 23 21 24 26 27 27 28 31 33 31 29 25 23 24 32 35 29 25 24 29 30 30 31 31 32 32 30 27 25 30 32 31 29 30 31 32
16 17 19 22 23 23 24 25 28 25 26 27 27 27 28 33 34 32 30 29 26 26 27 29 35 33 30 30 30 31 32 32 31 31 29 31 29 28 28 30 30 29 32
18 20 20 21 23 26 27 28 28 29 29 27 25 26 30 31 29 31 29 30 30 28 26 25 31 34 38 34 30 30 32 33 29 29 28 30 31 32 30 29 29 30 32
21 20 21 23 26 26 26 28 30 31 32 33 31 30 26 25 30 27 28 25 27 30 27 26 30 29 33 32 31 30 32 30 30 31 31 31 32 28 28 31 30 31 30
22 24 26 24 25 28 27 30 32 34 35 34 33 31 26 25 25 21 21 22 22 26 28 27 32 38 39 33 35 37 33 32 32 33 35 35 34 33 32 29 32 32 28
25 23 23 25 25 30 31 31 34 33 33 35 34 31 31 31 29 28 27 27 28 29 28 25 27 29 32 40 39 38 38 38 35 33 29 30 31 35 34 33 32 30 32
23 22 23 24 28 32 32 31 38 40 37 35 36 35 34 33 31 30 29 29 27 25 25 33 33 27 30 34 36 35 34 35 34 32 31 33 33 35 35 37 38 38 36
22 23 25 25 27 31 31 31 35 37 40 41 43 39 34 32 32 30 28 27 30 36 37 38 40 38 38 35 38 39 41 39 39 38 36 36 36 35 35 37 37 39 37
29 29 29 30 29 30 30 31 31 34 36 39 40 40 40 35 34 38 40 42 42 40 41 42 43 44 42 44 43 42 44 42 42 42 41 41 40 36 37 36 39 40 36
30 30 31 30 31 30 29 29 29 30 32 37 40 43 44 44 45 45 44 42 42 40 40 40 42 42 41 42 42 44 44 42 40 39 39 41 39 37 37 39 38 38 37
22 29 29 30 29 29 28 28 29 29 28 30 34 37 38 41 42 42 42 39 39 37 37 38 39 40 38 39 40 41 40 39 37 36 35 38 34 32 32 32 30 31 30

GFSGL_850_spd_084.txt.gz
Wind_Speed
22 23 20 18 18 18 22 19 20 18 8 8 10 14 9 9 11 9 9 9 11 9 13 11 12 14 17 8 8 13 13 12 15 16 16 16 16 20 19 22 24 19 16
24 25 25 21 17 17 17 19 16 14 20 21 10 12 15 14 13 13 9 9 11 7 6 11 11 11 12 20 14 12 8 14 16 21 23 24 22 16 18 19 20 16 16
28 24 23 21 23 21 20 17 18 16 13 17 18 19 21 19 15 16 13 10 14 14 12 13 10 11 16 15 15 17 16 14 19 19 20 16 19 17 13 15 19 16 16
9 14 25 22 21 23 23 21 19 19 17 15 16 18 20 17 16 15 15 16 15 17 16 15 15 16 16 17 17 20 21 21 21 20 21 21 18 16 18 18 15 14 16
10 14 18 18 17 17 18 22 21 20 21 20 19 18 22 21 18 19 19 19 19 17 19 18 18 18 16 20 21 18 17 17 18 17 20 21 19 15 13 17 20 23 21
8 2 7 16 7 15 18 17 20 23 21 22 22 22 21 23 21 20 22 20 22 21 21 19 22 22 19 21 23 21 20 24 23 24 25 25 23 21 22 21 21 24 30
19 14 8 7 11 10 11 16 17 19 26 25 24 25 26 26 25 24 25 27 28 25 24 25 25 23 20 23 24 23 22 23 26 26 29 28 28 24 24 25 25 27 26
2 4 7 8 8 11 16 16 15 17 19 20 28 29 28 32 30 28 28 30 31 34 34 31 28 29 24 26 23 27 28 28 27 28 31 32 28 25 24 23 24 26 28
12 12 11 5 6 10 14 17 20 20 21 23 23 25 29 33 32 30 29 30 34 37 38 38 37 38 36 33 33 35 34 32 31 32 29 28 29 28 25 26 28 28 34
6 9 11 9 8 6 8 12 15 19 18 23 23 26 28 31 32 31 30 33 35 36 37 39 40 41 41 38 41 40 43 44 41 41 36 35 34 32 31 29 31 33 32
7 6 5 10 9 9 12 10 11 14 19 22 23 21 22 27 30 33 32 30 31 34 37 38 36 37 37 33 32 35 41 42 44 42 40 41 38 37 36 35 33 29 29
10 12 10 8 11 11 13 14 13 11 13 13 17 22 22 22 22 24 28 32 30 32 33 33 34 30 30 37 37 39 37 34 33 35 38 38 38 37 32 31 33 33 33
14 11 11 16 13 13 16 15 14 11 12 15 16 13 14 18 15 21 22 25 31 34 34 36 38 35 38 40 38 33 33 38 38 38 40 42 42 42 40 40 39 38 39
12 13 15 10 13 14 16 12 14 12 13 14 15 17 16 20 19 20 15 14 17 25 29 34 37 39 39 37 40 42 41 39 39 42 44 45 44 42 39 36 35 34 35
13 12 14 14 15 12 11 15 16 18 19 21 23 25 27 27 24 23 23 25 29 28 28 29 25 22 29 33 30 30 37 47 46 44 42 39 35 33 36 31 30 32 32
15 15 15 15 15 17 19 21 21 19 22 24 25 25 27 27 26 26 26 26 26 28 31 31 32 31 32 30 30 28 31 35 42 43 42 38 32 27 23 27 27 29 31
14 16 17 18 18 18 21 23 27 28 26 27 23 24 24 27 28 30 27 27 27 29 31 32 32 31 35 35 41 41 41 39 40 39 39 37 36 30 25 25 24 30 31
16 16 15 17 19 19 21 23 24 27 27 26 25 26 25 26 29 34 30 29 30 29 30 32 33 33 32 34 33 38 39 44 40 39 38 33 35 35 30 29 30 31 31
15 15 17 18 19 22 24 23 23 25 28 31 31 30 28 28 29 31 27 28 28 27 26 30 30 31 34 31 31 33 35 32 34 34 33 31 30 33 34 32 33 33 31
16 17 20 18 19 20 21 23 26 27 28 31 32 28 23 25 28 25 22 23 22 23 25 26 28 28 29 32 36 39 42 39 32 30 34 32 32 34 35 32 29 29 27
16 18 21 19 20 21 23 24 26 30 31 32 38 37 36 32 32 32 33 33 33 33 33 31 31 30 29 31 33 33 33 36 37 37 34 32 31 30 30 33 33 31 29
13 16 21 24 26 27 26 28 27 30 33 34 40 40 38 46 47 40 32 34 33 31 29 31 35 37 35 36 38 39 35 29 30 34 32 33 35 33 29 29 31 31 30
12 15 21 27 31 31 29 29 29 30 32 35 36 38 38 41 42 45 46 41 38 32 31 31 36 38 39 40 41 42 42 44 39 37 37 36 35 32 31 34 37 33 32
13 16 22 25 33 35 34 34 34 33 31 33 35 36 36 38 43 42 44 44 48 50 46 43 43 46 48 47 46 46 45 44 43 46 41 37 41 40 39 41 40 40 36
14 15 18 24 33 38 38 36 36 35 33 32 33 34 34 35 36 38 44 46 49 53 53 51 48 47 48 48 47 46 45 44 44 43 41 38 38 36 38 39 37 38 39
16 19 19 26 33 37 37 37 36 35 35 34 32 30 31 33 33 34 37 41 44 45 44 43 42 41 42 44 45 45 44 42 42 41 37 33 33 34 33 34 33 33 31

GFSGL_850_spd_087.txt.gz
Wind_Speed
24 23 22 22 20 19 20 20 16 16 11 11 7 12 10 11 4 4 9 11 10 10 9 10 9 14 16 15 10 12 11 10 11 15 16 17 20 21 23 22 15 17 14
24 24 23 20 18 20 23 21 22 23 18 17 12 10 16 12 10 13 11 10 12 8 6 11 14 10 16 18 17 14 13 12 13 17 19 21 22 22 17 14 14 14 18
24 22 21 19 19 18 20 22 22 21 21 23 21 19 18 15 16 16 15 12 15 13 11 9 8 10 11 12 15 20 21 19 18 18 21 21 21 16 18 21 18 16 13
21 25 23 24 23 22 19 17 17 18 19 18 18 19 21 20 18 18 18 14 14 15 16 17 16 13 12 11 12 13 17 23 23 23 22 23 22 20 22 15 13 13 18
10 22 21 17 16 19 23 21 20 21 18 17 17 18 18 18 17 16 17 18 18 16 16 19 19 17 14 15 16 16 16 16 16 19 21 19 18 19 19 23 23 24 26
2 4 13 18 20 17 20 20 21 19 20 20 20 19 19 22 20 18 14 14 17 18 18 18 19 20 19 18 20 21 20 20 20 20 22 24 24 24 25 26 25 26 29
7 8 5 9 19 25 18 20 21 21 23 21 20 22 23 22 21 23 22 24 24 25 25 25 23 22 22 23 23 23 24 25 23 24 26 28 29 27 27 26 24 24 26
7 2 2 3 5 9 15 15 11 13 17 21 24 27 25 24 24 25 22 24 29 27 26 28 28 28 27 25 24 26 28 28 27 26 28 29 27 23 21 22 25 28 30
14 11 8 6 3 2 5 8 13 14 16 17 20 20 21 24 25 26 25 25 27 28 32 34 34 34 34 33 34 35 35 35 35 36 37 36 36 31 25 27 29 31 35
6 6 5 5 5 5 4 5 5 9 12 17 18 22 21 23 24 24 25 24 26 28 32 33 33 35 37 36 38 39 42 40 39 39 40 41 40 41 38 37 36 38 37
2 1 1 3 3 2 5 7 8 7 6 7 9 13 18 16 20 20 22 23 27 30 30 30 28 28 30 31 30 30 32 31 33 36 38 37 35 34 34 32 31 31 34
8 7 7 7 6 7 8 7 8 7 7 9 11 10 6 8 13 16 16 17 21 26 29 31 33 32 32 30 29 29 31 34 38 39 41 42 40 37 36 36 35 34 34
11 9 9 8 6 5 6 8 8 10 9 11 5 4 7 12 15 17 16 19 18 18 22 30 36 34 36 40 37 36 38 37 35 36 36 39 41 40 40 40 40 39 40
10 8 5 4 8 5 4 3 6 5 9 14 16 17 19 20 20 21 19 18 20 23 24 25 26 28 31 34 34 38 40 38 41 45 45 42 40 39 40 40 40 39 38
6 6 6 8 8 9 9 9 9 8 8 13 15 17 21 24 22 22 24 23 23 23 25 27 28 30 33 32 32 32 30 31 33 35 36 37 39 40 42 42 42 36 33
9 11 13 13 13 11 12 13 17 20 20 19 16 17 19 23 25 22 21 24 25 26 29 28 29 28 30 31 32 32 31 30 32 30 33 35 34 36 36 34 35 34 31
11 11 13 13 15 18 18 19 23 17 18 19 19 16 16 19 20 21 22 24 26 28 30 30 30 30 31 30 31 33 34 34 35 31 39 39 35 34 38 40 38 34 31
13 13 14 16 16 17 18 21 23 26 28 27 23 23 24 24 27 27 26 29 29 30 31 30 32 31 32 32 30 29 30 31 29 29 27 29 30 35 39 31 39 45 39
9 11 15 17 17 17 19 21 24 26 29 31 31 28 27 26 27 23 25 27 25 24 22 25 23 26 27 27 27 30 30 30 31 33 32 31 33 42 47 39 44 49 40
9 9 13 16 17 20 22 24 26 28 30 31 33 33 34 35 34 34 31 28 28 29 28 27 26 25 28 31 33 31 27 26 25 22 25 30 33 26 29 39 42 35 37
10 10 13 17 20 24 26 27 28 30 31 32 34 34 33 34 37 38 39 43 42 37 35 37 38 37 36 37 38 37 35 34 36 36 30 25 20 28 32 36 33 32 30
17 15 13 17 20 25 27 30 32 32 31 32 34 35 34 34 36 38 37 36 40 43 44 37 36 38 36 38 41 41 39 37 36 36 35 34 36 36 28 33 34 32 29
18 17 18 20 23 26 30 32 35 36 36 35 35 35 34 34 35 36 37 38 39 42 43 41 49 47 44 45 40 38 40 42 41 41 41 40 35 36 35 32 31 34 38
13 17 20 22 23 27 30 32 36 37 37 37 37 35 35 33 33 35 37 37 39 41 45 45 45 51 55 57 53 51 48 49 49 48 46 43 40 36 34 39 37 39 36
10 18 23 23 26 27 30 31 36 37 36 35 36 36 35 36 33 31 34 35 38 41 43 43 43 49 54 60 61 59 56 54 53 52 48 44 42 39 35 35 35 38 38
15 19 22 23 25 25 28 29 33 36 36 35 35 35 35 35 34 32 32 33 34 34 37 40 40 42 43 43 44 46 48 49 46 44 41 40 40 38 35 33 34 35 35

GFSGL_850_spd_090.txt.gz
Wind_Speed
25 27 29 27 23 20 21 21 17 15 15 15 14 11 11 9 9 9 10 12 10 9 8 9 11 11 13 14 13 11 9 9 10 13 14 16 18 20 20 16 9 11 12
25 25 24 24 22 22 22 25 22 18 17 15 13 10 13 13 11 10 9 10 13 10 6 7 10 11 11 14 17 17 13 14 14 17 18 20 21 21 16 18 15 16 15
26 25 24 22 23 25 24 24 24 23 23 21 20 17 13 15 14 14 12 12 13 13 12 10 7 8 9 11 15 18 19 19 19 21 22 24 25 25 19 18 15 14 13
19 19 24 25 27 27 24 22 24 25 23 21 20 20 20 18 17 17 18 17 15 15 14 14 13 13 11 10 10 9 11 15 19 22 24 27 27 24 22 18 19 22 25
27 21 23 28 27 27 26 25 23 22 22 21 19 18 17 18 18 17 18 18 18 17 16 15 15 17 17 15 13 15 15 15 14 16 17 18 18 17 18 21 25 26 26
30 27 22 17 13 15 23 26 25 22 22 22 23 21 19 19 19 18 18 18 17 15 16 14 14 15 18 18 20 17 17 20 22 23 20 21 21 20 20 22 24 25 27
16 15 18 20 11 11 18 14 13 17 21 21 23 23 22 22 20 20 21 22 22 22 23 24 24 22 20 19 19 20 21 22 21 22 25 25 25 22 22 22 21 23 26
13 8 10 9 13 14 18 16 15 18 23 23 23 24 25 23 20 21 22 23 25 27 29 28 27 26 25 24 24 25 25 24 25 26 28 30 30 29 28 28 27 28 31
14 14 12 10 6 5 12 18 22 23 23 20 17 18 17 17 19 20 23 26 26 26 26 28 29 31 32 30 30 32 33 34 31 31 32 34 33 32 30 30 30 32 37
10 9 9 10 8 6 5 3 0 2 3 7 9 10 13 18 21 22 22 24 25 27 26 28 28 31 31 31 33 34 36 36 33 31 28 27 26 25 24 25 26 31 34
4 4 5 6 6 5 4 2 2 3 2 1 4 1 3 7 11 15 15 14 16 22 24 26 27 29 29 29 31 33 35 33 31 31 32 31 30 29 28 28 27 27 28
6 6 7 6 7 6 4 3 3 2 2 4 6 5 2 6 6 9 10 12 15 17 18 19 23 26 28 31 33 33 30 31 31 30 32 34 34 33 31 31 32 32 31
8 8 9 9 10 8 7 6 6 6 5 4 3 4 5 7 11 14 15 14 15 16 18 20 21 21 23 25 24 24 28 30 35 40 41 41 40 39 39 39 37 36 36
4 2 4 5 7 9 8 8 8 8 7 8 9 10 12 14 14 13 15 16 16 17 18 18 19 22 25 27 29 27 26 27 28 29 32 38 37 36 36 36 39 39 39
3 4 3 1 3 5 8 9 9 8 9 10 12 13 16 17 16 17 19 20 20 22 24 24 22 21 23 24 26 25 25 26 26 27 28 28 28 27 28 27 28 30 31
1 2 5 6 6 4 2 3 8 11 14 16 18 21 20 18 22 23 23 21 21 23 27 29 30 27 27 26 26 27 26 25 24 23 24 27 28 32 32 28 29 29 30
3 4 6 7 7 8 9 9 9 5 6 8 11 15 20 26 29 29 28 27 27 29 31 33 34 34 32 29 27 25 26 23 22 22 21 22 24 27 26 28 30 32 34
4 6 7 9 9 11 12 14 16 17 18 17 14 16 16 19 22 27 31 32 32 31 32 32 32 30 30 29 24 24 25 25 23 23 22 24 25 26 27 29 31 33 37
3 6 8 10 11 13 14 16 18 20 22 23 23 20 22 23 24 25 25 26 31 33 31 29 28 29 29 27 29 28 27 27 26 21 19 19 17 20 27 30 31 34 33
4 5 7 9 11 13 15 18 20 22 25 27 29 30 31 32 32 31 31 32 32 33 34 36 36 37 35 34 34 34 36 36 31 30 30 27 29 27 30 32 27 32 31
5 6 5 9 12 15 17 19 22 24 27 29 30 30 31 33 35 35 36 35 36 37 37 38 39 41 43 41 42 41 39 41 42 40 37 37 34 35 34 35 36 36 30
6 7 7 8 12 15 19 21 24 27 29 32 33 34 32 33 33 34 35 36 36 38 40 40 41 39 39 37 37 45 47 45 46 46 41 39 41 37 35 35 36 36 36
5 8 10 8 12 16 20 22 25 27 30 32 33 34 33 33 34 34 34 35 37 38 39 38 41 40 42 40 39 43 47 53 49 46 48 47 45 46 42 39 37 37 36
9 10 13 12 15 17 20 21 24 26 27 30 32 31 32 33 34 34 34 35 36 37 38 38 38 38 40 43 44 46 50 50 55 54 52 53 53 51 50 46 42 41 37
16 13 15 14 16 19 21 21 25 27 29 31 33 33 34 35 35 35 34 34 36 37 38 37 38 39 39 42 45 47 48 50 51 51 55 57 57 54 53 52 48 45 42
18 17 17 16 17 20 21 21 24 25 27 29 32 32 34 36 35 34 34 34 35 35 35 35 36 36 37 37 39 44 46 47 46 44 43 49 52 55 54 53 49 43 43

GFSGL_850_spd_093.txt.gz
Wind_Speed
21 24 28 28 24 20 19 16 16 16 14 12 11 12 9 10 11 12 10 11 11 11 10 10 10 12 10 10 11 11 11 11 11 13 14 14 16 18 19 19 17 15 14
20 22 24 28 27 25 21 20 21 21 17 15 13 12 10 12 9 10 10 9 10 12 11 10 9 9 10 9 10 11 13 15 16 17 19 19 20 22 21 24 18 11 12
20 19 19 21 23 25 23 21 19 23 21 18 16 15 12 11 13 13 12 12 11 11 12 13 10 8 8 8 9 10 10 11 13 17 21 23 27 25 24 21 18 14 15
18 17 16 19 22 22 23 22 21 21 23 20 20 19 19 19 17 16 16 16 14 15 14 14 13 13 12 11 11 10 9 11 13 15 16 16 16 14 15 17 16 17 19
20 22 9 14 21 25 25 23 23 21 23 23 23 22 20 18 18 19 18 17 17 16 16 15 14 13 13 14 15 15 16 17 16 17 17 18 17 17 17 19 21 20 20
17 26 26 22 13 11 12 21 23 22 21 22 22 21 22 21 17 17 16 16 17 18 16 15 15 15 16 16 15 16 19 20 20 22 21 21 21 20 20 22 23 26 29
19 27 27 25 25 20 11 11 13 20 17 20 21 22 23 23 21 21 21 21 21 20 18 19 19 19 19 20 20 20 19 19 21 22 24 25 26 24 25 26 26 27 29
14 16 15 17 24 25 20 16 18 17 13 16 15 21 23 22 22 23 22 21 24 23 22 22 25 25 24 24 24 24 24 24 24 25 27 28 29 28 29 29 29 31 32
8 7 7 8 11 15 27 26 19 15 18 21 19 16 16 20 21 22 21 20 21 24 25 24 24 26 27 26 27 29 31 31 29 30 33 33 32 31 28 28 27 27 30
7 5 4 4 7 8 10 12 16 13 12 10 5 7 11 12 11 10 15 16 17 21 23 24 25 24 25 28 28 29 32 32 32 33 33 33 31 29 25 26 26 28 30
5 5 4 4 4 4 4 4 6 6 9 7 1 4 6 6 4 0 5 8 11 13 16 16 19 21 18 22 26 28 29 32 31 31 32 32 32 33 31 29 28 29 30
5 6 6 7 6 5 6 6 6 6 7 7 8 4 3 3 5 5 6 8 8 10 12 14 15 16 17 16 16 18 18 23 26 26 29 33 34 35 33 32 32 32 33
6 7 9 10 11 9 9 9 9 10 10 9 8 7 8 9 9 12 12 12 13 15 15 14 14 16 17 17 18 20 22 23 24 26 26 27 27 29 30 31 32 31 32
5 5 5 6 7 9 10 10 10 11 11 10 10 10 12 14 15 16 17 16 17 18 20 20 19 18 18 19 19 18 19 20 21 23 26 27 27 27 26 24 25 25 27
4 4 4 4 4 5 7 9 9 10 11 12 12 13 16 18 19 20 22 23 25 26 28 27 27 26 25 23 23 23 21 19 19 19 20 23 25 26 27 25 26 28 29
4 4 4 4 3 3 2 2 3 6 8 11 15 17 18 22 26 28 27 26 28 29 29 31 31 30 30 30 29 27 25 23 20 19 19 20 21 23 25 24 25 27 31
4 3 2 2 2 2 1 2 3 2 3 4 7 10 14 18 20 22 23 24 25 26 29 30 30 30 30 28 28 26 26 24 25 23 23 23 22 24 26 25 23 23 29
4 4 4 5 5 5 5 5 5 4 2 3 6 9 11 13 15 17 18 19 21 21 23 26 28 29 29 29 29 28 27 25 25 22 21 20 19 19 20 21 22 26 29
5 6 6 6 6 7 7 7 8 9 11 11 10 11 13 15 18 20 21 23 24 24 24 25 26 28 29 30 32 33 32 31 32 33 32 31 29 30 31 28 28 30 30
4 4 3 4 5 7 8 10 11 13 14 16 19 22 24 26 27 28 29 29 30 31 32 33 34 33 33 35 36 37 35 36 40 41 42 41 40 37 37 37 37 37 35
2 2 2 2 5 8 11 13 16 18 20 21 23 25 27 29 30 32 33 32 33 33 34 35 37 38 39 39 39 38 36 36 34 36 40 45 47 45 44 44 43 42 40
4 3 2 2 4 8 12 14 17 20 23 25 25 26 28 30 32 33 34 34 35 35 35 36 38 38 38 40 36 34 32 34 35 35 35 37 41 48 48 46 48 48 46
7 4 2 1 3 6 10 14 17 20 23 25 26 27 29 30 31 32 34 34 35 35 35 36 38 40 40 41 41 38 39 36 38 42 47 48 44 44 42 48 51 50 51
11 7 2 2 4 6 10 13 17 19 22 24 24 25 26 27 30 31 32 33 34 34 35 36 36 38 39 40 40 39 39 39 41 42 46 49 52 50 49 51 55 56 54
14 11 10 7 8 9 11 14 17 19 21 23 22 23 26 27 30 32 32 32 33 33 33 34 35 36 37 38 39 39 39 40 38 40 43 47 51 53 54 54 54 54 57
18 14 14 15 13 12 13 15 18 19 20 20 21 22 25 27 28 30 31 31 32 33 34 34 35 35 35 36 36 35 35 36 38 40 44 49 52 54 53 53 51 50 51

GFSGL_850_spd_096.txt.gz
Wind_Speed
24 22 21 20 21 19 16 13 11 9 9 9 7 7 7 7 7 9 10 11 10 8 8 9 9 10 11 10 10 11 11 11 13 16 18 18 19 20 20 20 22 19 15
25 22 19 19 21 21 18 14 15 15 15 13 12 11 9 7 8 6 7 9 9 9 8 9 7 9 9 10 10 10 11 12 14 17 19 20 22 24 25 20 17 16 17
20 21 18 18 18 21 22 20 18 17 15 16 16 14 10 8 7 9 10 9 10 10 10 10 9 10 7 7 9 9 9 10 11 15 17 18 19 18 16 14 15 15 15
9 16 15 14 14 15 17 17 16 15 14 13 15 14 14 13 13 13 14 14 13 14 13 13 11 10 11 10 11 11 12 12 14 17 17 18 17 16 18 20 19 18 17
20 15 9 8 7 11 13 14 16 16 16 15 16 17 16 16 15 14 15 16 16 15 16 14 13 12 12 12 12 13 14 16 18 19 18 21 21 19 20 21 23 24 23
21 20 17 11 6 4 2 8 13 15 16 17 17 17 17 18 17 15 15 15 15 16 16 15 15 15 14 14 15 15 15 17 18 19 21 22 21 22 22 25 26 28 32
17 17 17 19 20 15 14 9 7 6 10 12 16 17 15 18 19 19 19 17 17 17 18 18 17 17 18 19 19 18 19 19 20 21 23 23 26 26 27 28 29 30 32
11 13 14 15 19 19 19 22 20 11 12 13 11 12 13 13 15 19 19 18 18 19 19 20 21 21 23 24 24 24 24 24 23 25 26 27 28 28 30 31 33 33 32
7 6 9 10 11 13 15 18 25 23 20 17 15 14 13 13 15 20 19 18 16 19 19 19 21 23 25 24 25 27 27 26 26 26 28 30 30 29 28 29 30 30 32
8 7 6 4 4 3 1 3 5 8 9 12 12 12 14 14 12 14 13 13 14 10 14 16 18 21 22 23 21 23 26 28 28 29 29 29 29 29 27 27 27 28 28
7 5 4 3 2 1 0 0 1 1 4 9 9 8 8 10 10 12 4 9 10 10 11 14 16 16 13 12 15 14 16 18 18 21 24 26 27 26 25 26 26 27 28
4 4 4 4 4 3 2 3 5 8 8 9 8 8 7 5 3 4 9 12 12 14 13 12 13 13 13 14 14 15 16 19 20 21 22 22 22 23 24 24 25 25 28
6 6 7 7 7 6 6 7 7 9 9 9 8 8 8 6 5 7 8 10 12 13 14 15 17 18 16 15 15 15 16 18 20 21 21 20 21 23 24 23 24 24 24
5 5 6 6 7 9 10 10 11 11 11 11 11 11 11 10 12 12 12 14 15 15 17 19 20 22 23 22 22 20 19 18 19 21 22 21 21 20 21 21 23 23 25
4 3 4 4 4 6 8 9 10 11 12 11 13 13 15 16 17 19 20 21 21 21 21 22 22 22 22 22 22 22 22 22 21 21 22 23 23 23 22 19 23 23 24
6 5 4 3 2 3 3 3 3 5 7 9 10 11 11 13 14 15 16 16 17 18 20 21 21 22 22 23 22 23 22 20 22 22 22 20 21 21 21 19 18 20 22
8 7 6 6 4 4 3 3 2 1 1 3 5 7 9 11 14 15 15 15 17 17 16 17 18 19 21 22 24 24 27 25 23 24 24 25 26 27 26 26 25 23 21
8 8 7 7 7 6 6 6 5 4 3 2 1 3 4 5 7 9 11 11 12 13 15 17 19 21 23 25 25 27 29 30 28 29 32 32 33 32 35 34 34 34 33
8 9 10 9 7 6 5 4 3 2 3 4 5 5 6 8 9 10 12 13 14 16 18 20 22 23 25 27 28 30 31 31 30 29 28 30 33 36 39 40 40 40 39
11 10 9 8 7 6 5 4 4 4 5 6 6 8 10 11 12 15 17 19 21 23 24 25 26 27 28 30 32 34 35 35 33 31 32 33 35 36 38 38 39 43 45
11 11 9 8 7 6 5 5 6 7 9 10 12 13 15 17 19 20 22 23 25 26 27 28 29 29 30 30 31 33 33 35 35 36 34 34 31 33 34 35 37 40 40
11 11 12 10 8 5 4 5 7 9 12 13 14 15 16 18 19 21 23 24 25 26 27 29 31 32 33 34 34 33 33 34 34 34 33 31 30 33 38 45 43 40 40
16 14 13 12 8 5 1 2 6 9 12 15 16 16 17 19 20 22 24 26 27 28 28 29 30 31 32 33 34 35 36 36 33 31 35 37 39 40 42 43 44 44 45
20 17 14 11 10 7 4 3 4 8 12 15 16 16 17 19 21 22 25 27 27 27 27 28 30 32 33 34 35 35 35 36 36 37 36 38 42 43 42 41 41 37 39
24 23 19 13 9 7 7 5 6 9 12 14 16 16 18 19 20 22 24 26 27 27 27 27 29 31 32 32 33 33 34 35 34 34 36 39 43 45 46 48 51 54 55
27 25 22 18 15 11 8 9 9 9 11 13 14 16 18 19 21 22 24 25 28 28 28 28 29 30 30 31 32 34 35 34 32 30 34 37 40 42 44 47 49 50 51

GFSGL_850_spd_102.txt.gz
Wind_Speed
15 15 15 14 12 11 11 11 9 9 8 8 8 7 4 7 8 8 8 9 8 7 7 7 7 9 8 9 11 11 11 12 14 16 15 15 16 17 16 15 13 13 14
15 16 17 15 13 12 12 13 11 10 10 9 8 7 5 6 6 7 6 7 8 7 7 7 8 7 9 8 8 10 10 11 12 15 14 14 15 15 15 15 13 12 15
13 16 17 19 17 15 14 14 15 13 11 9 9 9 9 7 6 6 7 7 7 7 7 8 8 8 9 9 9 8 9 9 11 13 14 12 14 14 15 15 13 14 14
22 17 12 14 17 16 15 15 15 16 15 12 12 10 10 11 10 9 8 7 7 8 8 8 9 9 10 10 10 12 10 12 13 13 14 15 15 14 13 15 16 16 17
20 21 18 18 18 16 13 14 14 14 16 15 12 10 10 9 9 12 11 10 8 8 9 9 9 12 12 12 13 13 12 11 13 15 15 15 14 13 16 16 18 19 20
22 22 22 21 16 12 14 13 14 13 13 15 13 12 11 11 16 14 14 11 9 8 8 7 8 11 9 14 15 15 15 16 16 15 16 17 17 16 17 18 19 21 23
17 16 17 16 19 19 15 14 12 11 11 12 10 11 14 15 14 15 15 13 12 9 9 8 7 13 14 15 16 16 17 18 20 21 22 20 21 19 21 21 21 22 24
18 15 14 15 16 21 21 16 11 9 8 6 7 7 8 8 8 11 12 15 15 14 14 14 13 16 17 16 16 17 18 15 15 18 20 23 24 26 26 27 27 27 23
17 18 16 15 18 15 11 15 16 13 12 14 14 13 9 8 6 5 6 8 11 12 11 11 8 8 5 9 15 16 15 13 12 20 22 23 24 23 23 24 18 20 21
21 15 14 17 15 15 16 18 19 15 19 18 17 15 12 8 9 6 4 3 6 5 5 5 5 7 8 8 9 10 14 14 14 13 13 13 14 13 14 16 12 15 18
19 16 14 14 13 12 11 11 15 15 12 10 12 11 9 8 7 6 6 5 4 3 3 3 5 5 7 8 10 11 12 13 13 12 12 10 9 9 10 10 13 14 17
15 14 13 13 12 12 12 12 13 14 13 11 9 9 9 9 7 5 4 3 3 4 5 6 6 6 8 11 12 13 13 13 9 10 11 10 11 10 13 15 17 15 13
12 12 12 12 12 12 11 11 12 12 10 10 9 7 7 4 4 5 5 4 5 8 9 9 11 14 14 13 15 15 11 8 8 9 10 12 14 15 16 12 17 21 18
9 9 10 10 11 11 9 9 7 7 7 7 6 6 9 10 9 9 9 11 12 14 15 16 16 14 13 9 7 8 7 8 7 6 9 13 13 13 15 15 17 17 20
4 5 6 7 9 13 13 13 14 13 12 8 9 10 6 9 12 13 14 15 14 13 11 8 6 6 6 3 5 5 6 7 8 10 11 11 13 15 16 16 18 19 19
2 2 4 5 6 6 9 11 11 11 12 13 13 12 12 11 9 8 7 5 4 3 2 1 3 3 3 5 7 7 8 10 12 13 13 13 14 15 17 18 16 18 19
2 4 4 4 5 6 6 6 8 8 8 7 7 6 5 4 2 2 2 2 2 3 4 4 3 4 5 8 9 11 12 14 15 15 15 15 16 17 18 19 20 20 23
5 6 4 6 7 8 7 7 7 5 3 4 4 3 2 1 1 1 1 1 4 3 4 4 4 5 6 8 9 9 10 11 13 15 15 16 17 18 19 19 20 21 23
7 6 6 6 7 9 9 8 7 7 7 6 3 3 3 2 1 2 2 4 4 4 4 4 5 5 6 7 9 10 12 12 14 15 15 16 17 19 19 20 22 24 25
11 13 11 9 9 8 8 8 8 8 7 6 5 3 2 2 1 1 1 2 3 3 3 4 5 6 7 8 10 11 12 13 14 15 16 17 18 19 20 22 23 26 26
11 13 13 10 10 10 9 9 8 7 6 5 4 5 6 6 4 2 3 2 3 3 3 4 5 6 7 9 11 12 12 13 14 15 16 18 19 21 21 22 23 24 26
12 13 13 11 12 12 9 8 7 7 6 6 5 4 3 4 3 2 2 2 2 4 5 7 7 8 8 10 14 14 14 14 15 19 22 24 24 24 24 24 25 25 27
14 15 15 14 12 11 12 10 9 8 7 6 6 5 3 4 3 2 0 1 3 4 6 7 9 9 11 15 16 17 18 19 22 25 28 30 31 31 30 30 28 31 31
17 17 16 16 15 15 14 13 12 12 10 8 7 6 5 4 3 3 1 1 3 5 7 9 11 11 13 16 18 19 19 21 24 27 30 32 33 34 35 34 33 32 34
20 19 20 20 19 19 17 17 14 13 11 10 9 8 7 6 5 5 4 4 4 5 7 9 11 13 16 16 17 18 20 22 24 26 29 30 32 33 33 32 32 37 39
26 25 24 22 22 21 20 19 17 16 14 12 11 10 10 9 8 8 7 7 6 7 9 8 11 15 16 17 16 18 21 23 24 25 28 30 31 32 33 34 35 36 37